Observation data for Odell on 11/09/2019      Previous  Date       Current Mesonet Observations  Soil Data  Daily Summary Page  Observations in Plain Language
KOD1 090600Z 18008KT 05/02 A3028 RMK A01 T00500024  RH  083%=      5-min Rain = 0
KOD1 090601Z 18008KT 05/03 A3028 RMK A01 T00500025  RH  084%=      5-min Rain = 0
KOD1 090602Z 18007KT 05/03 A3028 RMK A01 T00500025  RH  084%=      5-min Rain = 0
KOD1 090603Z 18007KT 05/03 A3028 RMK A01 T00500025  RH  084%=      5-min Rain = 0
KOD1 090604Z 18007KT 05/02 A3028 RMK A01 T00500024  RH  084%=      5-min Rain = 0
KOD1 090605Z 19007KT 05/02 A3028 RMK A01 T00490024  RH  084%=      5-min Rain = 0
KOD1 090606Z 18008KT 05/03 A3028 RMK A01 T00490025  RH  084%=      5-min Rain = 0
KOD1 090607Z 18007KT 05/03 A3028 RMK A01 T00500025  RH  084%=      5-min Rain = 0
KOD1 090608Z 18007KT 05/03 A3028 RMK A01 T00490025  RH  084%=      5-min Rain = 0
KOD1 090609Z 19007KT 05/03 A3028 RMK A01 T00500025  RH  084%=      5-min Rain = 0
KOD1 090610Z 19007KT 05/03 A3028 RMK A01 T00500025  RH  084%=      5-min Rain = 0
KOD1 090611Z 18007KT 05/03 A3028 RMK A01 T00490025  RH  084%=      5-min Rain = 0
KOD1 090612Z 18007KT 05/03 A3028 RMK A01 T00490025  RH  084%=      5-min Rain = 0
KOD1 090613Z 18006KT 05/03 A3028 RMK A01 T00490025  RH  084%=      5-min Rain = 0
KOD1 090614Z 18007KT 05/03 A3028 RMK A01 T00480025  RH  085%=      5-min Rain = 0
KOD1 090615Z 18006KT 05/03 A3028 RMK A01 T00480025  RH  085%=      5-min Rain = 0
KOD1 090616Z 18007KT 05/03 A3028 RMK A01 T00480025  RH  085%=      5-min Rain = 0
KOD1 090617Z 18007KT 05/03 A3028 RMK A01 T00480025  RH  085%=      5-min Rain = 0
KOD1 090618Z 18007KT 05/03 A3028 RMK A01 T00480025  RH  085%=      5-min Rain = 0
KOD1 090619Z 18007KT 05/03 A3028 RMK A01 T00480025  RH  085%=      5-min Rain = 0
KOD1 090620Z 18007KT 05/03 A3028 RMK A01 T00480025  RH  085%=      5-min Rain = 0
KOD1 090621Z 18007KT 05/03 A3028 RMK A01 T00480025  RH  086%=      5-min Rain = 0
KOD1 090622Z 18007KT 05/03 A3028 RMK A01 T00480026  RH  086%=      5-min Rain = 0
KOD1 090623Z 19007KT 05/03 A3028 RMK A01 T00480026  RH  085%=      5-min Rain = 0
KOD1 090624Z 18007KT 05/03 A3028 RMK A01 T00480025  RH  085%=      5-min Rain = 0
KOD1 090625Z 19007KT 05/03 A3028 RMK A01 T00480025  RH  085%=      5-min Rain = 0
KOD1 090626Z 19006KT 05/03 A3028 RMK A01 T00480025  RH  085%=      5-min Rain = 0
KOD1 090627Z 19006KT 05/03 A3027 RMK A01 T00470025  RH  085%=      5-min Rain = 0
KOD1 090628Z 19006KT 05/03 A3027 RMK A01 T00470025  RH  085%=      5-min Rain = 0
KOD1 090629Z 19006KT 05/03 A3027 RMK A01 T00470025  RH  086%=      5-min Rain = 0
KOD1 090630Z 19006KT 05/03 A3027 RMK A01 T00460025  RH  086%=      5-min Rain = 0
KOD1 090631Z 19006KT 05/03 A3027 RMK A01 T00460025  RH  086%=      5-min Rain = 0
KOD1 090632Z 18007KT 05/03 A3027 RMK A01 T00460025  RH  086%=      5-min Rain = 0
KOD1 090633Z 18007KT 05/03 A3027 RMK A01 T00460025  RH  086%=      5-min Rain = 0
KOD1 090634Z 18007KT 05/03 A3027 RMK A01 T00460025  RH  086%=      5-min Rain = 0
KOD1 090635Z 18007KT 05/03 A3027 RMK A01 T00460025  RH  086%=      5-min Rain = 0
KOD1 090636Z 18007KT 05/03 A3027 RMK A01 T00460025  RH  086%=      5-min Rain = 0
KOD1 090637Z 18007KT 05/03 A3027 RMK A01 T00460025  RH  086%=      5-min Rain = 0
KOD1 090638Z 18007KT 05/03 A3027 RMK A01 T00460025  RH  086%=      5-min Rain = 0
KOD1 090639Z 18007KT 05/03 A3027 RMK A01 T00460025  RH  086%=      5-min Rain = 0
KOD1 090640Z 18007KT 05/03 A3027 RMK A01 T00460026  RH  087%=      5-min Rain = 0
KOD1 090641Z 18007KT 05/03 A3027 RMK A01 T00460026  RH  086%=      5-min Rain = 0
KOD1 090642Z 18007KT 05/03 A3027 RMK A01 T00460026  RH  086%=      5-min Rain = 0
KOD1 090643Z 19006KT 05/03 A3027 RMK A01 T00460026  RH  086%=      5-min Rain = 0
KOD1 090644Z 18007KT 05/03 A3027 RMK A01 T00460025  RH  086%=      5-min Rain = 0
KOD1 090645Z 18007KT 05/03 A3027 RMK A01 T00460025  RH  087%=      5-min Rain = 0
KOD1 090646Z 18007KT 05/03 A3027 RMK A01 T00460025  RH  087%=      5-min Rain = 0
KOD1 090647Z 18007KT 05/03 A3027 RMK A01 T00460026  RH  087%=      5-min Rain = 0
KOD1 090648Z 18008KT 05/03 A3027 RMK A01 T00460026  RH  087%=      5-min Rain = 0
KOD1 090649Z 18007KT 05/03 A3027 RMK A01 T00460026  RH  087%=      5-min Rain = 0
KOD1 090650Z 18007KT 05/03 A3027 RMK A01 T00460026  RH  087%=      5-min Rain = 0
KOD1 090651Z 18007KT 05/03 A3027 RMK A01 T00460026  RH  087%=      5-min Rain = 0
KOD1 090652Z 18007KT 05/03 A3027 RMK A01 T00460025  RH  087%=      5-min Rain = 0
KOD1 090653Z 18007KT 05/03 A3027 RMK A01 T00460025  RH  087%=      5-min Rain = 0
KOD1 090654Z 18006KT 05/03 A3027 RMK A01 T00460025  RH  087%=      5-min Rain = 0
KOD1 090655Z 18006KT 05/03 A3027 RMK A01 T00460025  RH  086%=      5-min Rain = 0
KOD1 090656Z 18006KT 05/03 A3027 RMK A01 T00460025  RH  087%=      5-min Rain = 0
KOD1 090657Z 19006KT 05/03 A3027 RMK A01 T00450025  RH  087%=      5-min Rain = 0
KOD1 090658Z 19006KT 05/03 A3027 RMK A01 T00450025  RH  087%=      5-min Rain = 0
KOD1 090659Z 19006KT 05/03 A3027 RMK A01 T00450025  RH  087%=      5-min Rain = 0
KOD1 090700Z 19005KT 05/03 A3027 RMK A01 T00450025  RH  087%=      5-min Rain = 0
KOD1 090701Z 19005KT 04/03 A3027 RMK A01 T00440025  RH  087%=      5-min Rain = 0
KOD1 090702Z 19005KT 04/02 A3027 RMK A01 T00440024  RH  087%=      5-min Rain = 0
KOD1 090703Z 19005KT 04/02 A3027 RMK A01 T00430024  RH  087%=      5-min Rain = 0
KOD1 090704Z 19004KT 04/02 A3027 RMK A01 T00430024  RH  088%=      5-min Rain = 0
KOD1 090705Z 20004KT 04/02 A3027 RMK A01 T00420024  RH  088%=      5-min Rain = 0
KOD1 090706Z 20004KT 04/02 A3027 RMK A01 T00430024  RH  088%=      5-min Rain = 0
KOD1 090707Z 20003KT 04/02 A3027 RMK A01 T00420023  RH  088%=      5-min Rain = 0
KOD1 090708Z 20003KT 04/02 A3027 RMK A01 T00410023  RH  088%=      5-min Rain = 0
KOD1 090709Z 21002KT 04/02 A3027 RMK A01 T00400022  RH  088%=      5-min Rain = 0
KOD1 090710Z 20003KT 04/02 A3027 RMK A01 T00390022  RH  088%=      5-min Rain = 0
KOD1 090711Z 20003KT 04/02 A3027 RMK A01 T00390022  RH  089%=      5-min Rain = 0
KOD1 090712Z 21003KT 04/02 A3027 RMK A01 T00390022  RH  089%=      5-min Rain = 0
KOD1 090713Z 21004KT 04/02 A3027 RMK A01 T00380022  RH  089%=      5-min Rain = 0
KOD1 090714Z 21004KT 04/02 A3027 RMK A01 T00380022  RH  089%=      5-min Rain = 0
KOD1 090715Z 21004KT 04/02 A3027 RMK A01 T00380022  RH  089%=      5-min Rain = 0
KOD1 090720Z 20002KT 03/02 A3027 RMK A01 T00340019  RH  090%=      5-min Rain = 0
KOD1 090721Z 21002KT 03/02 A3027 RMK A01 T00340018  RH  090%=      5-min Rain = 0
KOD1 090722Z 21002KT 03/02 A3027 RMK A01 T00330018  RH  090%=      5-min Rain = 0
KOD1 090723Z 21002KT 03/02 A3027 RMK A01 T00330017  RH  090%=      5-min Rain = 0
KOD1 090724Z 21002KT 03/02 A3027 RMK A01 T00330017  RH  090%=      5-min Rain = 0
KOD1 090725Z 21002KT 03/02 A3027 RMK A01 T00320017  RH  090%=      5-min Rain = 0
KOD1 090726Z 21002KT 03/02 A3027 RMK A01 T00320017  RH  090%=      5-min Rain = 0
KOD1 090727Z 21002KT 03/02 A3027 RMK A01 T00320017  RH  090%=      5-min Rain = 0
KOD1 090728Z 21002KT 03/02 A3027 RMK A01 T00320018  RH  090%=      5-min Rain = 0
KOD1 090729Z 22002KT 03/02 A3027 RMK A01 T00310017  RH  090%=      5-min Rain = 0
KOD1 090730Z 21002KT 03/02 A3026 RMK A01 T00310017  RH  090%=      5-min Rain = 0
KOD1 090731Z 22002KT 03/02 A3026 RMK A01 T00310017  RH  091%=      5-min Rain = 0
KOD1 090732Z 22002KT 03/02 A3026 RMK A01 T00300016  RH  090%=      5-min Rain = 0
KOD1 090733Z 22003KT 03/02 A3026 RMK A01 T00300016  RH  090%=      5-min Rain = 0
KOD1 090734Z 22003KT 03/02 A3026 RMK A01 T00290015  RH  090%=      5-min Rain = 0
KOD1 090735Z 22003KT 03/02 A3026 RMK A01 T00290015  RH  091%=      5-min Rain = 0
KOD1 090736Z 22003KT 03/02 A3026 RMK A01 T00290015  RH  091%=      5-min Rain = 0
KOD1 090737Z 22003KT 03/02 A3026 RMK A01 T00280015  RH  091%=      5-min Rain = 0
KOD1 090738Z 22003KT 03/01 A3026 RMK A01 T00280014  RH  091%=      5-min Rain = 0
KOD1 090739Z 21003KT 03/01 A3026 RMK A01 T00270013  RH  091%=      5-min Rain = 0
KOD1 090740Z 21003KT 03/01 A3026 RMK A01 T00270014  RH  091%=      5-min Rain = 0
KOD1 090741Z 21003KT 03/01 A3026 RMK A01 T00270014  RH  092%=      5-min Rain = 0
KOD1 090742Z 21003KT 03/02 A3026 RMK A01 T00270015  RH  092%=      5-min Rain = 0
KOD1 090743Z 21003KT 03/01 A3026 RMK A01 T00270014  RH  092%=      5-min Rain = 0
KOD1 090744Z 20003KT 03/02 A3026 RMK A01 T00270015  RH  092%=      5-min Rain = 0
KOD1 090745Z 20003KT 03/02 A3026 RMK A01 T00270015  RH  092%=      5-min Rain = 0
KOD1 090746Z 20002KT 03/02 A3026 RMK A01 T00270015  RH  092%=      5-min Rain = 0
KOD1 090747Z 20002KT 03/02 A3026 RMK A01 T00270015  RH  092%=      5-min Rain = 0
KOD1 090748Z 20002KT 03/02 A3026 RMK A01 T00270015  RH  092%=      5-min Rain = 0
KOD1 090749Z 20002KT 03/02 A3026 RMK A01 T00270015  RH  092%=      5-min Rain = 0
KOD1 090750Z 20002KT 03/02 A3026 RMK A01 T00270015  RH  092%=      5-min Rain = 0
KOD1 090751Z 21002KT 03/02 A3026 RMK A01 T00270016  RH  092%=      5-min Rain = 0
KOD1 090752Z 21002KT 03/01 A3026 RMK A01 T00260014  RH  092%=      5-min Rain = 0
KOD1 090753Z 21001KT 03/01 A3026 RMK A01 T00260014  RH  092%=      5-min Rain = 0
KOD1 090754Z 21001KT 03/01 A3026 RMK A01 T00250014  RH  092%=      5-min Rain = 0
KOD1 090755Z 21001KT 03/02 A3026 RMK A01 T00260015  RH  092%=      5-min Rain = 0
KOD1 090756Z 21001KT 03/02 A3026 RMK A01 T00260016  RH  093%=      5-min Rain = 0
KOD1 090757Z 21002KT 03/02 A3026 RMK A01 T00270016  RH  093%=      5-min Rain = 0
KOD1 090758Z 22002KT 03/02 A3026 RMK A01 T00270016  RH  093%=      5-min Rain = 0
KOD1 090759Z 21002KT 03/02 A3026 RMK A01 T00270016  RH  093%=      5-min Rain = 0
KOD1 090800Z 21002KT 03/02 A3026 RMK A01 T00270016  RH  093%=      5-min Rain = 0
KOD1 090801Z 21002KT 03/02 A3026 RMK A01 T00270016  RH  093%=      5-min Rain = 0
KOD1 090802Z 22002KT 03/02 A3026 RMK A01 T00270016  RH  093%=      5-min Rain = 0
KOD1 090803Z 21002KT 03/02 A3026 RMK A01 T00270016  RH  093%=      5-min Rain = 0
KOD1 090804Z 21003KT 03/02 A3026 RMK A01 T00270016  RH  093%=      5-min Rain = 0
KOD1 090805Z 21003KT 03/02 A3026 RMK A01 T00270017  RH  093%=      5-min Rain = 0
KOD1 090806Z 20003KT 03/02 A3026 RMK A01 T00270017  RH  093%=      5-min Rain = 0
KOD1 090807Z 20003KT 03/02 A3025 RMK A01 T00270016  RH  093%=      5-min Rain = 0
KOD1 090808Z 20003KT 03/02 A3025 RMK A01 T00270016  RH  093%=      5-min Rain = 0
KOD1 090809Z 20003KT 03/02 A3025 RMK A01 T00270017  RH  093%=      5-min Rain = 0
KOD1 090810Z 20003KT 03/02 A3025 RMK A01 T00280018  RH  093%=      5-min Rain = 0
KOD1 090811Z 20003KT 03/02 A3025 RMK A01 T00280018  RH  093%=      5-min Rain = 0
KOD1 090812Z 20003KT 03/02 A3025 RMK A01 T00280018  RH  093%=      5-min Rain = 0
KOD1 090813Z 20003KT 03/02 A3025 RMK A01 T00290018  RH  093%=      5-min Rain = 0
KOD1 090814Z 20003KT 03/02 A3025 RMK A01 T00290019  RH  093%=      5-min Rain = 0
KOD1 090815Z 20003KT 03/02 A3025 RMK A01 T00290019  RH  093%=      5-min Rain = 0
KOD1 090816Z 20004KT 03/02 A3025 RMK A01 T00300020  RH  093%=      5-min Rain = 0
KOD1 090817Z 20004KT 03/02 A3025 RMK A01 T00310021  RH  093%=      5-min Rain = 0
KOD1 090818Z 19004KT 03/02 A3025 RMK A01 T00320021  RH  093%=      5-min Rain = 0
KOD1 090819Z 20004KT 03/02 A3025 RMK A01 T00320022  RH  093%=      5-min Rain = 0
KOD1 090820Z 19004KT 03/02 A3025 RMK A01 T00330022  RH  093%=      5-min Rain = 0
KOD1 090821Z 19003KT 03/02 A3025 RMK A01 T00330022  RH  093%=      5-min Rain = 0
KOD1 090822Z 20003KT 03/02 A3025 RMK A01 T00330022  RH  092%=      5-min Rain = 0
KOD1 090823Z 20003KT 03/02 A3025 RMK A01 T00320021  RH  092%=      5-min Rain = 0
KOD1 090824Z 20003KT 03/02 A3025 RMK A01 T00330021  RH  092%=      5-min Rain = 0
KOD1 090825Z 20003KT 03/02 A3025 RMK A01 T00320020  RH  092%=      5-min Rain = 0
KOD1 090826Z 20003KT 03/02 A3025 RMK A01 T00320020  RH  092%=      5-min Rain = 0
KOD1 090827Z 20003KT 03/02 A3025 RMK A01 T00310019  RH  092%=      5-min Rain = 0
KOD1 090828Z 20002KT 03/02 A3024 RMK A01 T00310019  RH  092%=      5-min Rain = 0
KOD1 090829Z 20002KT 03/02 A3024 RMK A01 T00310019  RH  092%=      5-min Rain = 0
KOD1 090830Z 20002KT 03/02 A3024 RMK A01 T00310019  RH  092%=      5-min Rain = 0
KOD1 090831Z 20003KT 03/02 A3024 RMK A01 T00310019  RH  092%=      5-min Rain = 0
KOD1 090832Z 20003KT 03/02 A3024 RMK A01 T00310019  RH  092%=      5-min Rain = 0
KOD1 090833Z 21003KT 03/02 A3024 RMK A01 T00310019  RH  092%=      5-min Rain = 0
KOD1 090834Z 20004KT 03/02 A3024 RMK A01 T00310019  RH  092%=      5-min Rain = 0
KOD1 090835Z 21004KT 03/02 A3024 RMK A01 T00310019  RH  092%=      5-min Rain = 0
KOD1 090836Z 21004KT 03/02 A3024 RMK A01 T00300018  RH  092%=      5-min Rain = 0
KOD1 090837Z 20004KT 03/02 A3024 RMK A01 T00300018  RH  092%=      5-min Rain = 0
KOD1 090838Z 20004KT 03/02 A3024 RMK A01 T00290018  RH  092%=      5-min Rain = 0
KOD1 090839Z 21004KT 03/02 A3024 RMK A01 T00290017  RH  092%=      5-min Rain = 0
KOD1 090840Z 21004KT 03/02 A3024 RMK A01 T00270015  RH  092%=      5-min Rain = 0
KOD1 090841Z 21004KT 03/02 A3024 RMK A01 T00260015  RH  092%=      5-min Rain = 0
KOD1 090842Z 21004KT 03/01 A3024 RMK A01 T00260014  RH  092%=      5-min Rain = 0
KOD1 090843Z 21004KT 03/01 A3024 RMK A01 T00250014  RH  092%=      5-min Rain = 0
KOD1 090844Z 21004KT 03/02 A3024 RMK A01 T00250015  RH  093%=      5-min Rain = 0
KOD1 090845Z 20005KT 03/02 A3024 RMK A01 T00260016  RH  093%=      5-min Rain = 0
KOD1 090846Z 20005KT 03/02 A3024 RMK A01 T00260016  RH  093%=      5-min Rain = 0
KOD1 090847Z 20004KT 03/02 A3023 RMK A01 T00260016  RH  093%=      5-min Rain = 0
KOD1 090848Z 20004KT 03/02 A3023 RMK A01 T00260015  RH  093%=      5-min Rain = 0
KOD1 090849Z 20004KT 03/01 A3023 RMK A01 T00250014  RH  093%=      5-min Rain = 0
KOD1 090850Z 20004KT 02/01 A3023 RMK A01 T00240013  RH  093%=      5-min Rain = 0
KOD1 090851Z 20004KT 02/01 A3023 RMK A01 T00230013  RH  093%=      5-min Rain = 0
KOD1 090852Z 20004KT 02/01 A3023 RMK A01 T00230013  RH  093%=      5-min Rain = 0
KOD1 090853Z 20004KT 02/01 A3023 RMK A01 T00230013  RH  093%=      5-min Rain = 0
KOD1 090854Z 20004KT 02/01 A3023 RMK A01 T00220012  RH  093%=      5-min Rain = 0
KOD1 090855Z 20005KT 02/01 A3023 RMK A01 T00230013  RH  094%=      5-min Rain = 0
KOD1 090856Z 20005KT 02/01 A3023 RMK A01 T00230014  RH  094%=      5-min Rain = 0
KOD1 090857Z 20004KT 02/01 A3023 RMK A01 T00230014  RH  094%=      5-min Rain = 0
KOD1 090858Z 20005KT 02/01 A3023 RMK A01 T00230013  RH  094%=      5-min Rain = 0
KOD1 090859Z 20005KT 02/01 A3023 RMK A01 T00220013  RH  093%=      5-min Rain = 0
KOD1 090900Z 20005KT 02/01 A3023 RMK A01 T00220013  RH  093%=      5-min Rain = 0
KOD1 090901Z 20005KT 02/01 A3023 RMK A01 T00220013  RH  094%=      5-min Rain = 0
KOD1 090902Z 20005KT 02/01 A3023 RMK A01 T00230014  RH  094%=      5-min Rain = 0
KOD1 090903Z 20004KT 02/01 A3023 RMK A01 T00230014  RH  094%=      5-min Rain = 0
KOD1 090904Z 20005KT 02/01 A3023 RMK A01 T00230014  RH  094%=      5-min Rain = 0
KOD1 090905Z 20004KT 02/01 A3023 RMK A01 T00230014  RH  094%=      5-min Rain = 0
KOD1 090906Z 20005KT 02/01 A3023 RMK A01 T00220013  RH  094%=      5-min Rain = 0
KOD1 090907Z 20005KT 02/01 A3023 RMK A01 T00220012  RH  094%=      5-min Rain = 0
KOD1 090908Z 20004KT 02/01 A3023 RMK A01 T00210011  RH  093%=      5-min Rain = 0
KOD1 090909Z 20005KT 02/01 A3023 RMK A01 T00210012  RH  094%=      5-min Rain = 0
KOD1 090910Z 19004KT 02/01 A3023 RMK A01 T00220013  RH  094%=      5-min Rain = 0
KOD1 090911Z 19004KT 02/01 A3023 RMK A01 T00220014  RH  094%=      5-min Rain = 0
KOD1 090912Z 19004KT 02/02 A3023 RMK A01 T00230015  RH  095%=      5-min Rain = 0
KOD1 090913Z 19004KT 02/02 A3023 RMK A01 T00230015  RH  094%=      5-min Rain = 0
KOD1 090914Z 19002KT 02/02 A3023 RMK A01 T00230015  RH  094%=      5-min Rain = 0
KOD1 090915Z 18002KT 02/02 A3023 RMK A01 T00230015  RH  094%=      5-min Rain = 0
KOD1 090916Z 17002KT 02/01 A3023 RMK A01 T00230014  RH  094%=      5-min Rain = 0
KOD1 090917Z 16001KT 02/01 A3023 RMK A01 T00220013  RH  094%=      5-min Rain = 0
KOD1 090918Z 17002KT 02/01 A3023 RMK A01 T00220014  RH  094%=      5-min Rain = 0
KOD1 090919Z 18002KT 02/02 A3023 RMK A01 T00230015  RH  094%=      5-min Rain = 0
KOD1 090920Z 19002KT 02/02 A3022 RMK A01 T00230015  RH  094%=      5-min Rain = 0
KOD1 090921Z 19002KT 02/02 A3022 RMK A01 T00230015  RH  094%=      5-min Rain = 0
KOD1 090922Z 19002KT 02/02 A3022 RMK A01 T00240016  RH  094%=      5-min Rain = 0
KOD1 090923Z 19002KT 03/02 A3022 RMK A01 T00250017  RH  094%=      5-min Rain = 0
KOD1 090924Z 19002KT 03/02 A3022 RMK A01 T00250017  RH  094%=      5-min Rain = 0
KOD1 090925Z 19002KT 03/02 A3022 RMK A01 T00250017  RH  094%=      5-min Rain = 0
KOD1 090926Z 20002KT 03/02 A3022 RMK A01 T00250017  RH  094%=      5-min Rain = 0
KOD1 090927Z 20002KT 03/02 A3022 RMK A01 T00260018  RH  095%=      5-min Rain = 0
KOD1 090928Z 20002KT 03/02 A3022 RMK A01 T00270019  RH  095%=      5-min Rain = 0
KOD1 090929Z 20003KT 03/02 A3022 RMK A01 T00270019  RH  095%=      5-min Rain = 0
KOD1 090930Z 20003KT 03/02 A3022 RMK A01 T00270020  RH  095%=      5-min Rain = 0
KOD1 090931Z 20003KT 03/02 A3022 RMK A01 T00280020  RH  095%=      5-min Rain = 0
KOD1 090932Z 20003KT 03/02 A3022 RMK A01 T00280020  RH  095%=      5-min Rain = 0
KOD1 090933Z 20003KT 03/02 A3022 RMK A01 T00290021  RH  095%=      5-min Rain = 0
KOD1 090934Z 20003KT 03/02 A3022 RMK A01 T00290021  RH  094%=      5-min Rain = 0
KOD1 090935Z 19003KT 03/02 A3022 RMK A01 T00290021  RH  094%=      5-min Rain = 0
KOD1 090936Z 19002KT 03/02 A3022 RMK A01 T00290020  RH  094%=      5-min Rain = 0
KOD1 090937Z 19002KT 03/02 A3022 RMK A01 T00280020  RH  094%=      5-min Rain = 0
KOD1 090938Z 20002KT 03/02 A3022 RMK A01 T00280019  RH  094%=      5-min Rain = 0
KOD1 090939Z 19002KT 03/02 A3022 RMK A01 T00270019  RH  094%=      5-min Rain = 0
KOD1 090940Z 19002KT 03/02 A3022 RMK A01 T00270019  RH  094%=      5-min Rain = 0
KOD1 090941Z 19003KT 03/02 A3022 RMK A01 T00280020  RH  094%=      5-min Rain = 0
KOD1 090942Z 19003KT 03/02 A3022 RMK A01 T00290021  RH  094%=      5-min Rain = 0
KOD1 090943Z 19003KT 03/02 A3022 RMK A01 T00300022  RH  095%=      5-min Rain = 0
KOD1 090944Z 20004KT 03/02 A3022 RMK A01 T00310022  RH  094%=      5-min Rain = 0
KOD1 090945Z 20004KT 03/02 A3022 RMK A01 T00310022  RH  094%=      5-min Rain = 0
KOD1 090946Z 20004KT 03/02 A3022 RMK A01 T00310022  RH  094%=      5-min Rain = 0
KOD1 090947Z 20005KT 03/02 A3022 RMK A01 T00310022  RH  094%=      5-min Rain = 0
KOD1 090948Z 20005KT 03/02 A3022 RMK A01 T00310022  RH  094%=      5-min Rain = 0
KOD1 090949Z 20005KT 03/02 A3022 RMK A01 T00310022  RH  094%=      5-min Rain = 0
KOD1 090950Z 21005KT 03/02 A3022 RMK A01 T00310023  RH  094%=      5-min Rain = 0
KOD1 090951Z 21005KT 03/02 A3022 RMK A01 T00320024  RH  095%=      5-min Rain = 0
KOD1 090952Z 21005KT 03/03 A3022 RMK A01 T00330026  RH  095%=      5-min Rain = 0
KOD1 090953Z 21005KT 03/03 A3022 RMK A01 T00340026  RH  095%=      5-min Rain = 0
KOD1 090954Z 21005KT 03/02 A3022 RMK A01 T00330024  RH  094%=      5-min Rain = 0
KOD1 090955Z 22004KT 03/02 A3022 RMK A01 T00330023  RH  094%=      5-min Rain = 0
KOD1 090956Z 21004KT 03/02 A3022 RMK A01 T00320023  RH  094%=      5-min Rain = 0
KOD1 090957Z 22004KT 03/02 A3022 RMK A01 T00310022  RH  094%=      5-min Rain = 0
KOD1 090958Z 22004KT 03/02 A3022 RMK A01 T00310023  RH  094%=      5-min Rain = 0
KOD1 090959Z 21004KT 03/02 A3022 RMK A01 T00320023  RH  094%=      5-min Rain = 0
KOD1 091000Z 22004KT 03/02 A3022 RMK A01 T00310022  RH  094%=      5-min Rain = 0
KOD1 091001Z 21004KT 03/02 A3021 RMK A01 T00310022  RH  094%=      5-min Rain = 0
KOD1 091002Z 22004KT 03/02 A3021 RMK A01 T00310022  RH  094%=      5-min Rain = 0
KOD1 091003Z 22004KT 03/02 A3021 RMK A01 T00310022  RH  094%=      5-min Rain = 0
KOD1 091004Z 22004KT 03/02 A3021 RMK A01 T00310022  RH  094%=      5-min Rain = 0
KOD1 091005Z 22004KT 03/02 A3021 RMK A01 T00300021  RH  094%=      5-min Rain = 0
KOD1 091006Z 22004KT 03/02 A3021 RMK A01 T00290019  RH  093%=      5-min Rain = 0
KOD1 091007Z 22004KT 03/02 A3021 RMK A01 T00280018  RH  093%=      5-min Rain = 0
KOD1 091008Z 22004KT 03/02 A3021 RMK A01 T00270018  RH  094%=      5-min Rain = 0
KOD1 091009Z 22004KT 03/02 A3021 RMK A01 T00270018  RH  094%=      5-min Rain = 0
KOD1 091010Z 23003KT 03/02 A3021 RMK A01 T00270017  RH  094%=      5-min Rain = 0
KOD1 091011Z 22004KT 03/02 A3021 RMK A01 T00270018  RH  094%=      5-min Rain = 0
KOD1 091012Z 22004KT 03/02 A3021 RMK A01 T00270018  RH  094%=      5-min Rain = 0
KOD1 091013Z 22005KT 03/02 A3021 RMK A01 T00260018  RH  094%=      5-min Rain = 0
KOD1 091014Z 22005KT 03/02 A3021 RMK A01 T00260017  RH  094%=      5-min Rain = 0
KOD1 091015Z 22005KT 03/02 A3021 RMK A01 T00250016  RH  094%=      5-min Rain = 0
KOD1 091016Z 22004KT 02/02 A3021 RMK A01 T00240016  RH  094%=      5-min Rain = 0
KOD1 091017Z 22004KT 02/02 A3021 RMK A01 T00230015  RH  094%=      5-min Rain = 0
KOD1 091018Z 22003KT 02/02 A3021 RMK A01 T00230015  RH  094%=      5-min Rain = 0
KOD1 091019Z 22003KT 02/02 A3021 RMK A01 T00230015  RH  094%=      5-min Rain = 0
KOD1 091020Z 22002KT 02/02 A3021 RMK A01 T00230015  RH  094%=      5-min Rain = 0
KOD1 091021Z 22003KT 02/02 A3021 RMK A01 T00230015  RH  094%=      5-min Rain = 0
KOD1 091022Z 22003KT 02/02 A3021 RMK A01 T00230016  RH  095%=      5-min Rain = 0
KOD1 091023Z 22003KT 02/02 A3021 RMK A01 T00240016  RH  095%=      5-min Rain = 0
KOD1 091024Z 22003KT 02/02 A3021 RMK A01 T00240016  RH  095%=      5-min Rain = 0
KOD1 091025Z 22003KT 02/02 A3021 RMK A01 T00240016  RH  095%=      5-min Rain = 0
KOD1 091026Z 22003KT 02/02 A3021 RMK A01 T00240016  RH  095%=      5-min Rain = 0
KOD1 091027Z 22003KT 02/02 A3021 RMK A01 T00230015  RH  095%=      5-min Rain = 0
KOD1 091028Z 22002KT 02/01 A3021 RMK A01 T00220014  RH  094%=      5-min Rain = 0
KOD1 091029Z 22002KT 02/01 A3021 RMK A01 T00200012  RH  094%=      5-min Rain = 0
KOD1 091030Z 21002KT 02/01 A3021 RMK A01 T00190010  RH  094%=      5-min Rain = 0
KOD1 091031Z 21002KT 02/01 A3021 RMK A01 T00190010  RH  094%=      5-min Rain = 0
KOD1 091032Z 21002KT 02/01 A3021 RMK A01 T00190011  RH  094%=      5-min Rain = 0
KOD1 091033Z 21002KT 02/01 A3021 RMK A01 T00180010  RH  094%=      5-min Rain = 0
KOD1 091034Z 21002KT 02/01 A3021 RMK A01 T00170009  RH  094%=      5-min Rain = 0
KOD1 091035Z 21002KT 02/01 A3021 RMK A01 T00160008  RH  094%=      5-min Rain = 0
KOD1 091036Z 21001KT 02/01 A3021 RMK A01 T00160008  RH  094%=      5-min Rain = 0
KOD1 091037Z 21001KT 01/01 A3021 RMK A01 T00140006  RH  094%=      5-min Rain = 0
KOD1 091038Z 21002KT 01/00 A3021 RMK A01 T00120004  RH  094%=      5-min Rain = 0
KOD1 091039Z 21002KT 01/01 A3021 RMK A01 T00130005  RH  095%=      5-min Rain = 0
KOD1 091040Z 21002KT 01/01 A302 RMK A01 T00130005  RH  095%=      5-min Rain = 0
KOD1 091041Z 21002KT 01/01 A302 RMK A01 T00140006  RH  095%=      5-min Rain = 0
KOD1 091042Z 21002KT 01/01 A302 RMK A01 T00140007  RH  095%=      5-min Rain = 0
KOD1 091043Z 21002KT 01/01 A302 RMK A01 T00140007  RH  095%=      5-min Rain = 0
KOD1 091044Z 21001KT 01/01 A302 RMK A01 T00130006  RH  095%=      5-min Rain = 0
KOD1 091045Z 22001KT 01/01 A302 RMK A01 T00140007  RH  095%=      5-min Rain = 0
KOD1 091046Z 21001KT 02/01 A302 RMK A01 T00150008  RH  095%=      5-min Rain = 0
KOD1 091047Z 22001KT 02/01 A302 RMK A01 T00160010  RH  096%=      5-min Rain = 0
KOD1 091048Z 23001KT 02/01 A302 RMK A01 T00170011  RH  096%=      5-min Rain = 0
KOD1 091049Z 23002KT 02/01 A302 RMK A01 T00180012  RH  096%=      5-min Rain = 0
KOD1 091050Z 22002KT 02/01 A302 RMK A01 T00190013  RH  096%=      5-min Rain = 0
KOD1 091051Z 22002KT 02/01 A302 RMK A01 T00200014  RH  096%=      5-min Rain = 0
KOD1 091052Z 23003KT 02/02 A302 RMK A01 T00210015  RH  096%=      5-min Rain = 0
KOD1 091053Z 22003KT 02/02 A302 RMK A01 T00210015  RH  096%=      5-min Rain = 0
KOD1 091054Z 22002KT 02/02 A302 RMK A01 T00220016  RH  096%=      5-min Rain = 0
KOD1 091055Z 22002KT 02/02 A302 RMK A01 T00220016  RH  096%=      5-min Rain = 0
KOD1 091056Z 22003KT 02/02 A302 RMK A01 T00220016  RH  096%=      5-min Rain = 0
KOD1 091057Z 22003KT 02/02 A302 RMK A01 T00230017  RH  096%=      5-min Rain = 0
KOD1 091058Z 22003KT 02/02 A302 RMK A01 T00230017  RH  096%=      5-min Rain = 0
KOD1 091059Z 22002KT 02/02 A302 RMK A01 T00230017  RH  096%=      5-min Rain = 0
KOD1 091100Z 22003KT 02/02 A302 RMK A01 T00230017  RH  096%=      5-min Rain = 0
KOD1 091101Z 23003KT 02/02 A302 RMK A01 T00230017  RH  096%=      5-min Rain = 0
KOD1 091102Z 23003KT 02/02 A302 RMK A01 T00240018  RH  096%=      5-min Rain = 0
KOD1 091103Z 23003KT 02/02 A302 RMK A01 T00240018  RH  096%=      5-min Rain = 0
KOD1 091104Z 23003KT 02/02 A302 RMK A01 T00240018  RH  096%=      5-min Rain = 0
KOD1 091105Z 23003KT 02/02 A302 RMK A01 T00240018  RH  096%=      5-min Rain = 0
KOD1 091106Z 23003KT 02/02 A302 RMK A01 T00240018  RH  096%=      5-min Rain = 0
KOD1 091107Z 23003KT 02/02 A302 RMK A01 T00240017  RH  096%=      5-min Rain = 0
KOD1 091108Z 23003KT 02/02 A302 RMK A01 T00240018  RH  096%=      5-min Rain = 0
KOD1 091109Z 23003KT 02/02 A302 RMK A01 T00240018  RH  096%=      5-min Rain = 0
KOD1 091110Z 23002KT 02/02 A302 RMK A01 T00240018  RH  096%=      5-min Rain = 0
KOD1 091111Z 24002KT 02/02 A302 RMK A01 T00240017  RH  096%=      5-min Rain = 0
KOD1 091112Z 24002KT 02/02 A302 RMK A01 T00230017  RH  096%=      5-min Rain = 0
KOD1 091113Z 23002KT 02/02 A302 RMK A01 T00220016  RH  096%=      5-min Rain = 0
KOD1 091114Z 23001KT 02/02 A302 RMK A01 T00210015  RH  096%=      5-min Rain = 0
KOD1 091115Z 24001KT 02/01 A3019 RMK A01 T00210014  RH  095%=      5-min Rain = 0
KOD1 091116Z 24001KT 02/01 A3019 RMK A01 T00200013  RH  095%=      5-min Rain = 0
KOD1 091117Z 24001KT 02/01 A3019 RMK A01 T00190013  RH  095%=      5-min Rain = 0
KOD1 091118Z 24001KT 02/01 A3019 RMK A01 T00190012  RH  095%=      5-min Rain = 0
KOD1 091119Z 24001KT 02/01 A3019 RMK A01 T00180012  RH  095%=      5-min Rain = 0
KOD1 091120Z 24001KT 02/01 A3019 RMK A01 T00180011  RH  096%=      5-min Rain = 0
KOD1 091121Z 25001KT 02/01 A3019 RMK A01 T00170011  RH  096%=      5-min Rain = 0
KOD1 091122Z 26002KT 02/01 A3019 RMK A01 T00170010  RH  096%=      5-min Rain = 0
KOD1 091123Z 26002KT 02/01 A3019 RMK A01 T00160010  RH  096%=      5-min Rain = 0
KOD1 091124Z 26002KT 02/01 A3019 RMK A01 T00160009  RH  096%=      5-min Rain = 0
KOD1 091125Z 26002KT 02/01 A3019 RMK A01 T00150008  RH  096%=      5-min Rain = 0
KOD1 091126Z 26003KT 01/01 A302 RMK A01 T00140008  RH  096%=      5-min Rain = 0
KOD1 091127Z 26003KT 01/01 A302 RMK A01 T00140007  RH  096%=      5-min Rain = 0
KOD1 091128Z 26003KT 01/01 A302 RMK A01 T00140008  RH  096%=      5-min Rain = 0
KOD1 091129Z 27003KT 01/01 A302 RMK A01 T00140008  RH  096%=      5-min Rain = 0
KOD1 091130Z 27003KT 01/01 A302 RMK A01 T00140009  RH  096%=      5-min Rain = 0
KOD1 091131Z 27003KT 02/01 A302 RMK A01 T00150009  RH  096%=      5-min Rain = 0
KOD1 091132Z 27003KT 02/01 A302 RMK A01 T00150010  RH  096%=      5-min Rain = 0
KOD1 091133Z 27003KT 02/01 A302 RMK A01 T00150009  RH  096%=      5-min Rain = 0
KOD1 091134Z 28003KT 02/01 A302 RMK A01 T00150010  RH  096%=      5-min Rain = 0
KOD1 091135Z 28003KT 02/01 A302 RMK A01 T00150009  RH  096%=      5-min Rain = 0
KOD1 091136Z 28003KT 01/01 A302 RMK A01 T00130006  RH  096%=      5-min Rain = 0
KOD1 091137Z 28004KT 01/01 A302 RMK A01 T00110005  RH  095%=      5-min Rain = 0
KOD1 091138Z 28004KT 01/00 A302 RMK A01 T00100004  RH  096%=      5-min Rain = 0
KOD1 091139Z 28004KT 01/00 A302 RMK A01 T00100004  RH  096%=      5-min Rain = 0
KOD1 091140Z 28004KT 01/01 A3021 RMK A01 T00110006  RH  096%=      5-min Rain = 0
KOD1 091141Z 28004KT 01/01 A3021 RMK A01 T00120006  RH  096%=      5-min Rain = 0
KOD1 091142Z 27004KT 01/01 A3021 RMK A01 T00120007  RH  096%=      5-min Rain = 0
KOD1 091143Z 27004KT 01/01 A3021 RMK A01 T00140009  RH  097%=      5-min Rain = 0
KOD1 091144Z 27004KT 02/01 A3021 RMK A01 T00150010  RH  097%=      5-min Rain = 0
KOD1 091145Z 27004KT 02/01 A3021 RMK A01 T00160011  RH  097%=      5-min Rain = 0
KOD1 091146Z 28004KT 02/01 A3021 RMK A01 T00150011  RH  097%=      5-min Rain = 0
KOD1 091147Z 29004KT 01/01 A3021 RMK A01 T00140009  RH  096%=      5-min Rain = 0
KOD1 091148Z 29004KT 01/01 A3021 RMK A01 T00130008  RH  096%=      5-min Rain = 0
KOD1 091149Z 30004KT 01/01 A3021 RMK A01 T00120006  RH  096%=      5-min Rain = 0
KOD1 091150Z 30004KT 01/01 A3021 RMK A01 T00110005  RH  096%=      5-min Rain = 0
KOD1 091151Z 30004KT 01/01 A3021 RMK A01 T00110006  RH  096%=      5-min Rain = 0
KOD1 091152Z 31005KT 01/01 A3021 RMK A01 T00110006  RH  096%=      5-min Rain = 0
KOD1 091153Z 31005KT 01/01 A3021 RMK A01 T00110006  RH  097%=      5-min Rain = 0
KOD1 091154Z 32005KT 01/01 A3021 RMK A01 T00130008  RH  097%=      5-min Rain = 0
KOD1 091155Z 33005KT 01/01 A3021 RMK A01 T00130009  RH  097%=      5-min Rain = 0
KOD1 091156Z 33005KT 01/01 A3021 RMK A01 T00140009  RH  097%=      5-min Rain = 0
KOD1 091157Z 33005KT 01/01 A3021 RMK A01 T00140010  RH  097%=      5-min Rain = 0
KOD1 091158Z 32005KT 01/01 A3021 RMK A01 T00130009  RH  097%=      5-min Rain = 0
KOD1 091159Z 31004KT 01/01 A3021 RMK A01 T00120007  RH  097%=      5-min Rain = 0
KOD1 091200Z 31004KT 01/01 A3021 RMK A01 T00120008  RH  097%=      5-min Rain = 0
KOD1 091201Z 31004KT 01/01 A3021 RMK A01 T00120008  RH  097%=      5-min Rain = 0
KOD1 091202Z 31004KT 01/01 A3021 RMK A01 T00120007  RH  097%=      5-min Rain = 0
KOD1 091203Z 31005KT 01/01 A3021 RMK A01 T00120007  RH  097%=      5-min Rain = 0
KOD1 091204Z 30005KT 01/01 A3021 RMK A01 T00110007  RH  097%=      5-min Rain = 0
KOD1 091205Z 30005KT 01/01 A3021 RMK A01 T00120007  RH  097%=      5-min Rain = 0
KOD1 091206Z 30005KT 01/01 A3021 RMK A01 T00120008  RH  097%=      5-min Rain = 0
KOD1 091207Z 29005KT 01/01 A3021 RMK A01 T00130008  RH  097%=      5-min Rain = 0
KOD1 091208Z 29006KT 01/01 A3021 RMK A01 T00130009  RH  097%=      5-min Rain = 0
KOD1 091209Z 29005KT 01/01 A3021 RMK A01 T00130009  RH  097%=      5-min Rain = 0
KOD1 091210Z 29005KT 01/01 A3021 RMK A01 T00130009  RH  097%=      5-min Rain = 0
KOD1 091211Z 29005KT 01/01 A3021 RMK A01 T00130008  RH  097%=      5-min Rain = 0
KOD1 091212Z 30005KT 01/01 A3021 RMK A01 T00120008  RH  097%=      5-min Rain = 0
KOD1 091213Z 30005KT 01/01 A3022 RMK A01 T00110006  RH  097%=      5-min Rain = 0
KOD1 091214Z 30005KT 01/01 A3022 RMK A01 T00100005  RH  097%=      5-min Rain = 0
KOD1 091215Z 30005KT 01/01 A3022 RMK A01 T00100005  RH  097%=      5-min Rain = 0
KOD1 091216Z 31005KT 01/01 A3022 RMK A01 T00100005  RH  097%=      5-min Rain = 0
KOD1 091217Z 31005KT 01/01 A3022 RMK A01 T00100005  RH  097%=      5-min Rain = 0
KOD1 091218Z 31004KT 01/01 A3022 RMK A01 T00100006  RH  097%=      5-min Rain = 0
KOD1 091219Z 32005KT 01/01 A3022 RMK A01 T00100006  RH  097%=      5-min Rain = 0
KOD1 091220Z 32005KT 01/01 A3022 RMK A01 T00110007  RH  097%=      5-min Rain = 0
KOD1 091221Z 32005KT 01/01 A3022 RMK A01 T00110007  RH  097%=      5-min Rain = 0
KOD1 091222Z 33005KT 01/01 A3022 RMK A01 T00110007  RH  097%=      5-min Rain = 0
KOD1 091223Z 33005KT 01/01 A3022 RMK A01 T00110008  RH  097%=      5-min Rain = 0
KOD1 091224Z 33005KT 01/01 A3022 RMK A01 T00110006  RH  097%=      5-min Rain = 0
KOD1 091225Z 33005KT 01/01 A3022 RMK A01 T00100006  RH  097%=      5-min Rain = 0
KOD1 091226Z 34004KT 01/00 A3022 RMK A01 T00070002  RH  097%=      5-min Rain = 0
KOD1 091227Z 34004KT 00/M00 A3022 RMK A01 T00041001  RH  096%=      5-min Rain = 0
KOD1 091228Z 34004KT 00/M00 A3022 RMK A01 T00021003  RH  096%=      5-min Rain = 0
KOD1 091229Z 34004KT 00/M00 A3022 RMK A01 T00011004  RH  096%=      5-min Rain = 0
KOD1 091230Z 33004KT 00/M01 A3022 RMK A01 T00011005  RH  096%=      5-min Rain = 0
KOD1 091231Z 33004KT 00/M00 A3022 RMK A01 T00011004  RH  097%=      5-min Rain = 0
KOD1 091232Z 33004KT 00/M00 A3022 RMK A01 T00011004  RH  097%=      5-min Rain = 0
KOD1 091233Z 33004KT 00/M00 A3022 RMK A01 T00011003  RH  097%=      5-min Rain = 0
KOD1 091234Z 33004KT 00/M00 A3022 RMK A01 T00011003  RH  097%=      5-min Rain = 0
KOD1 091235Z 32004KT 00/M00 A3022 RMK A01 T00011003  RH  097%=      5-min Rain = 0
KOD1 091236Z 32004KT 00/00 A3022 RMK A01 T000000-4  RH  097%=      5-min Rain = 0
KOD1 091237Z 31003KT 00/00 A3022 RMK A01 T000000-4  RH  097%=      5-min Rain = 0
KOD1 091238Z 31003KT 00/00 A3022 RMK A01 T000000-4  RH  097%=      5-min Rain = 0
KOD1 091239Z 32002KT 00/M00 A3022 RMK A01 T00011003  RH  097%=      5-min Rain = 0
KOD1 091240Z 32002KT 00/M00 A3022 RMK A01 T00021002  RH  097%=      5-min Rain = 0
KOD1 091241Z 32002KT 00/M00 A3022 RMK A01 T00021002  RH  097%=      5-min Rain = 0
KOD1 091242Z 32002KT 00/M00 A3022 RMK A01 T00021002  RH  097%=      5-min Rain = 0
KOD1 091243Z 32002KT 00/M00 A3022 RMK A01 T00011003  RH  097%=      5-min Rain = 0
KOD1 091244Z 32001KT 00/M00 A3022 RMK A01 T00011004  RH  097%=      5-min Rain = 0
KOD1 091245Z 33002KT M00/M01 A3022 RMK A01 T10011005  RH  097%=      5-min Rain = 0
KOD1 091246Z 33002KT M00/M01 A3022 RMK A01 T10021006  RH  097%=      5-min Rain = 0
KOD1 091247Z 33002KT M00/M01 A3022 RMK A01 T10021007  RH  097%=      5-min Rain = 0
KOD1 091248Z 33002KT M00/M01 A3022 RMK A01 T10021007  RH  097%=      5-min Rain = 0
KOD1 091249Z 33002KT M00/M01 A3022 RMK A01 T10021007  RH  097%=      5-min Rain = 0
KOD1 091250Z 32002KT M00/M01 A3022 RMK A01 T10021007  RH  097%=      5-min Rain = 0
KOD1 091251Z 32002KT M00/M01 A3022 RMK A01 T10021007  RH  097%=      5-min Rain = 0
KOD1 091252Z 32001KT M00/M01 A3022 RMK A01 T10021006  RH  097%=      5-min Rain = 0
KOD1 091253Z 32001KT M00/M01 A3022 RMK A01 T10021006  RH  097%=      5-min Rain = 0
KOD1 091254Z 32001KT M00/M01 A3022 RMK A01 T10021006  RH  097%=      5-min Rain = 0
KOD1 091255Z 33001KT M00/M01 A3022 RMK A01 T10011005  RH  097%=      5-min Rain = 0
KOD1 091256Z 35001KT 00/00 A3022 RMK A01 T00-000-4  RH  097%=      5-min Rain = 0
KOD1 091257Z 35001KT 00/00 A3022 RMK A01 T00-000-4  RH  097%=      5-min Rain = 0
KOD1 091258Z 34000KT M00/M01 A3022 RMK A01 T10011005  RH  097%=      5-min Rain = 0
KOD1 091259Z 33001KT M00/M01 A3022 RMK A01 T10021006  RH  097%=      5-min Rain = 0
KOD1 091300Z 30001KT M00/M01 A3022 RMK A01 T10021006  RH  097%=      5-min Rain = 0
KOD1 091301Z 27001KT M00/M01 A3021 RMK A01 T10021006  RH  097%=      5-min Rain = 0
KOD1 091302Z 26001KT M00/M01 A3021 RMK A01 T10021006  RH  097%=      5-min Rain = 0
KOD1 091303Z 25001KT M00/M01 A3021 RMK A01 T10021006  RH  097%=      5-min Rain = 0
KOD1 091304Z 24001KT M00/M01 A3021 RMK A01 T10011005  RH  097%=      5-min Rain = 0
KOD1 091305Z 23001KT M00/M01 A3021 RMK A01 T10011005  RH  097%=      5-min Rain = 0
KOD1 091306Z 22001KT M00/M00 A3021 RMK A01 T10011004  RH  097%=      5-min Rain = 0
KOD1 091307Z 22001KT 00/00 A3021 RMK A01 T00-000-4  RH  097%=      5-min Rain = 0
KOD1 091308Z 22001KT 00/00 A3022 RMK A01 T00-000-4  RH  097%=      5-min Rain = 0
KOD1 091309Z 22000KT 00/00 A3022 RMK A01 T00-000-4  RH  097%=      5-min Rain = 0
KOD1 091310Z 22000KT M00/M01 A3022 RMK A01 T10011005  RH  097%=      5-min Rain = 0
KOD1 091311Z 22000KT M00/M01 A3022 RMK A01 T10011005  RH  097%=      5-min Rain = 0
KOD1 091312Z 00000KT M00/M01 A3022 RMK A01 T10011005  RH  097%=      5-min Rain = 0
KOD1 091313Z 00000KT M00/M01 A3021 RMK A01 T10011005  RH  097%=      5-min Rain = 0
KOD1 091314Z 00000KT M00/M01 A3021 RMK A01 T10011005  RH  097%=      5-min Rain = 0
KOD1 091315Z 00000KT M00/M01 A3021 RMK A01 T10011005  RH  097%=      5-min Rain = 0
KOD1 091316Z 00000KT M00/M01 A3021 RMK A01 T10011005  RH  097%=      5-min Rain = 0
KOD1 091317Z 00000KT M00/M01 A3022 RMK A01 T10011005  RH  097%=      5-min Rain = 0
KOD1 091318Z 00000KT M00/M01 A3022 RMK A01 T10011005  RH  097%=      5-min Rain = 0
KOD1 091319Z 00000KT 00/00 A3022 RMK A01 T00-000-4  RH  097%=      5-min Rain = 0
KOD1 091320Z 01000KT 00/00 A3022 RMK A01 T00-000-4  RH  097%=      5-min Rain = 0
KOD1 091321Z 01001KT M00/M01 A3022 RMK A01 T10011005  RH  097%=      5-min Rain = 0
KOD1 091322Z 01002KT M00/M01 A3022 RMK A01 T10041008  RH  097%=      5-min Rain = 0
KOD1 091323Z 01002KT M01/M01 A3022 RMK A01 T10051010  RH  097%=      5-min Rain = 0
KOD1 091324Z 01002KT M01/M01 A3022 RMK A01 T10051009  RH  097%=      5-min Rain = 0
KOD1 091325Z 01001KT M01/M01 A3022 RMK A01 T10051009  RH  097%=      5-min Rain = 0
KOD1 091326Z 01001KT M00/M01 A3022 RMK A01 T10041008  RH  097%=      5-min Rain = 0
KOD1 091327Z 01000KT M00/M01 A3022 RMK A01 T10031007  RH  097%=      5-min Rain = 0
KOD1 091328Z 01000KT M00/M01 A3022 RMK A01 T10011005  RH  098%=      5-min Rain = 0
KOD1 091329Z 01000KT 00/00 A3022 RMK A01 T000000-3  RH  098%=      5-min Rain = 0
KOD1 091330Z 01000KT 00/M00 A3022 RMK A01 T00011002  RH  098%=      5-min Rain = 0
KOD1 091331Z 02001KT 00/M00 A3022 RMK A01 T00021001  RH  098%=      5-min Rain = 0
KOD1 091332Z 03001KT 00/00 A3022 RMK A01 T00030000  RH  098%=      5-min Rain = 0
KOD1 091333Z 05002KT 00/00 A3022 RMK A01 T00040001  RH  098%=      5-min Rain = 0
KOD1 091334Z 05002KT 00/00 A3022 RMK A01 T00040001  RH  098%=      5-min Rain = 0
KOD1 091335Z 06002KT 00/00 A3022 RMK A01 T00040000  RH  098%=      5-min Rain = 0
KOD1 091336Z 06002KT 00/00 A3022 RMK A01 T00040001  RH  098%=      5-min Rain = 0
KOD1 091337Z 07002KT 00/00 A3022 RMK A01 T00040001  RH  098%=      5-min Rain = 0
KOD1 091338Z 06002KT 01/00 A3022 RMK A01 T00050002  RH  098%=      5-min Rain = 0
KOD1 091339Z 06002KT 01/00 A3022 RMK A01 T00070004  RH  098%=      5-min Rain = 0
KOD1 091340Z 06002KT 01/01 A3022 RMK A01 T00080005  RH  098%=      5-min Rain = 0
KOD1 091341Z 06002KT 01/01 A3022 RMK A01 T00100007  RH  098%=      5-min Rain = 0
KOD1 091342Z 06002KT 01/01 A3022 RMK A01 T00110008  RH  098%=      5-min Rain = 0
KOD1 091343Z 06001KT 01/01 A3022 RMK A01 T00120009  RH  098%=      5-min Rain = 0
KOD1 091344Z 06001KT 01/01 A3022 RMK A01 T00140012  RH  098%=      5-min Rain = 0
KOD1 091345Z 06001KT 02/01 A3022 RMK A01 T00170014  RH  098%=      5-min Rain = 0
KOD1 091346Z 06001KT 02/02 A3022 RMK A01 T00180015  RH  098%=      5-min Rain = 0
KOD1 091347Z 06001KT 02/02 A3022 RMK A01 T00190016  RH  098%=      5-min Rain = 0
KOD1 091348Z 06001KT 02/02 A3022 RMK A01 T00200017  RH  098%=      5-min Rain = 0
KOD1 091349Z 05001KT 02/02 A3022 RMK A01 T00210018  RH  098%=      5-min Rain = 0
KOD1 091350Z 06002KT 02/02 A3023 RMK A01 T00220019  RH  098%=      5-min Rain = 0
KOD1 091351Z 06002KT 02/02 A3023 RMK A01 T00220019  RH  098%=      5-min Rain = 0
KOD1 091352Z 06002KT 02/02 A3023 RMK A01 T00230020  RH  098%=      5-min Rain = 0
KOD1 091353Z 06002KT 02/02 A3023 RMK A01 T00230020  RH  098%=      5-min Rain = 0
KOD1 091354Z 06002KT 02/02 A3023 RMK A01 T00240020  RH  098%=      5-min Rain = 0
KOD1 091355Z 06002KT 02/02 A3023 RMK A01 T00240021  RH  098%=      5-min Rain = 0
KOD1 091356Z 07002KT 03/02 A3023 RMK A01 T00250021  RH  097%=      5-min Rain = 0
KOD1 091357Z 06001KT 03/02 A3023 RMK A01 T00270023  RH  098%=      5-min Rain = 0
KOD1 091358Z 08001KT 03/02 A3023 RMK A01 T00280024  RH  098%=      5-min Rain = 0
KOD1 091359Z 11000KT 03/03 A3023 RMK A01 T00300026  RH  098%=      5-min Rain = 0
KOD1 091400Z 11000KT 03/03 A3022 RMK A01 T00310028  RH  098%=      5-min Rain = 0
KOD1 091401Z 00000KT 03/03 A3022 RMK A01 T00330029  RH  097%=      5-min Rain = 0
KOD1 091402Z 00000KT 04/03 A3022 RMK A01 T00350031  RH  097%=      5-min Rain = 0
KOD1 091403Z 00000KT 04/03 A3022 RMK A01 T00350031  RH  097%=      5-min Rain = 0
KOD1 091404Z 00000KT 04/03 A3022 RMK A01 T00360031  RH  097%=      5-min Rain = 0
KOD1 091405Z 00000KT 04/03 A3023 RMK A01 T00370032  RH  097%=      5-min Rain = 0
KOD1 091406Z 10000KT 04/03 A3023 RMK A01 T00390034  RH  097%=      5-min Rain = 0
KOD1 091407Z 00000KT 04/04 A3023 RMK A01 T00410035  RH  096%=      5-min Rain = 0
KOD1 091408Z 00000KT 04/04 A3023 RMK A01 T00430037  RH  096%=      5-min Rain = 0
KOD1 091409Z 01001KT 04/04 A3023 RMK A01 T00420036  RH  096%=      5-min Rain = 0
KOD1 091410Z 02001KT 04/03 A3023 RMK A01 T00410032  RH  094%=      5-min Rain = 0
KOD1 091411Z 02000KT 04/03 A3023 RMK A01 T00400031  RH  094%=      5-min Rain = 0
KOD1 091412Z 34000KT 04/03 A3023 RMK A01 T00400031  RH  094%=      5-min Rain = 0
KOD1 091413Z 00000KT 04/03 A3023 RMK A01 T00410032  RH  094%=      5-min Rain = 0
KOD1 091414Z 00000KT 04/03 A3023 RMK A01 T00420033  RH  094%=      5-min Rain = 0
KOD1 091415Z 28000KT 04/03 A3023 RMK A01 T00420032  RH  093%=      5-min Rain = 0
KOD1 091416Z 30001KT 04/03 A3023 RMK A01 T00410031  RH  093%=      5-min Rain = 0
KOD1 091417Z 28001KT 04/03 A3023 RMK A01 T00410030  RH  093%=      5-min Rain = 0
KOD1 091418Z 26001KT 04/03 A3023 RMK A01 T00400030  RH  093%=      5-min Rain = 0
KOD1 091419Z 24001KT 04/03 A3023 RMK A01 T00400029  RH  093%=      5-min Rain = 0
KOD1 091420Z 21002KT 04/03 A3023 RMK A01 T00400030  RH  093%=      5-min Rain = 0
KOD1 091421Z 22002KT 04/03 A3023 RMK A01 T00390028  RH  092%=      5-min Rain = 0
KOD1 091422Z 22002KT 04/03 A3023 RMK A01 T00390028  RH  093%=      5-min Rain = 0
KOD1 091423Z 21002KT 04/03 A3023 RMK A01 T00390028  RH  093%=      5-min Rain = 0
KOD1 091424Z 22001KT 04/03 A3023 RMK A01 T00390028  RH  093%=      5-min Rain = 0
KOD1 091425Z 24001KT 04/03 A3023 RMK A01 T00390029  RH  093%=      5-min Rain = 0
KOD1 091426Z 26001KT 04/03 A3023 RMK A01 T00410031  RH  093%=      5-min Rain = 0
KOD1 091427Z 26001KT 04/03 A3023 RMK A01 T00410031  RH  093%=      5-min Rain = 0
KOD1 091428Z 28001KT 04/03 A3023 RMK A01 T00420032  RH  093%=      5-min Rain = 0
KOD1 091429Z 30000KT 04/03 A3023 RMK A01 T00420032  RH  093%=      5-min Rain = 0
KOD1 091430Z 24000KT 04/03 A3023 RMK A01 T00430033  RH  093%=      5-min Rain = 0
KOD1 091431Z 25002KT 04/03 A3023 RMK A01 T00440034  RH  093%=      5-min Rain = 0
KOD1 091432Z 26001KT 04/03 A3023 RMK A01 T00430032  RH  092%=      5-min Rain = 0
KOD1 091433Z 25002KT 04/03 A3023 RMK A01 T00430031  RH  092%=      5-min Rain = 0
KOD1 091434Z 25001KT 04/03 A3023 RMK A01 T00430031  RH  092%=      5-min Rain = 0
KOD1 091435Z 25001KT 04/03 A3023 RMK A01 T00430032  RH  092%=      5-min Rain = 0
KOD1 091436Z 25001KT 04/03 A3023 RMK A01 T00440032  RH  092%=      5-min Rain = 0
KOD1 091437Z 26002KT 05/03 A3023 RMK A01 T00450033  RH  092%=      5-min Rain = 0
KOD1 091438Z 25002KT 05/03 A3023 RMK A01 T00460034  RH  092%=      5-min Rain = 0
KOD1 091439Z 26002KT 05/03 A3023 RMK A01 T00460034  RH  092%=      5-min Rain = 0
KOD1 091440Z 27002KT 05/03 A3023 RMK A01 T00460034  RH  091%=      5-min Rain = 0
KOD1 091441Z 27002KT 05/03 A3023 RMK A01 T00470034  RH  091%=      5-min Rain = 0
KOD1 091442Z 25001KT 05/04 A3023 RMK A01 T00480036  RH  092%=      5-min Rain = 0
KOD1 091443Z 27001KT 05/04 A3023 RMK A01 T00490037  RH  092%=      5-min Rain = 0
KOD1 091444Z 28002KT 05/04 A3023 RMK A01 T00510038  RH  092%=      5-min Rain = 0
KOD1 091445Z 29002KT 05/04 A3023 RMK A01 T00520039  RH  092%=      5-min Rain = 0
KOD1 091446Z 27002KT 05/04 A3023 RMK A01 T00520039  RH  091%=      5-min Rain = 0
KOD1 091447Z 28002KT 05/04 A3023 RMK A01 T00520039  RH  091%=      5-min Rain = 0
KOD1 091448Z 26002KT 05/04 A3023 RMK A01 T00530039  RH  091%=      5-min Rain = 0
KOD1 091449Z 27001KT 05/04 A3023 RMK A01 T00520037  RH  090%=      5-min Rain = 0
KOD1 091450Z 26001KT 05/04 A3023 RMK A01 T00520037  RH  090%=      5-min Rain = 0
KOD1 091451Z 30001KT 05/04 A3023 RMK A01 T00540040  RH  091%=      5-min Rain = 0
KOD1 091452Z 33002KT 06/04 A3023 RMK A01 T00550040  RH  090%=      5-min Rain = 0
KOD1 091453Z 34002KT 05/04 A3023 RMK A01 T00540038  RH  090%=      5-min Rain = 0
KOD1 091454Z 32001KT 05/04 A3023 RMK A01 T00540038  RH  090%=      5-min Rain = 0
KOD1 091455Z 27002KT 06/04 A3023 RMK A01 T00550040  RH  090%=      5-min Rain = 0
KOD1 091456Z 26001KT 06/04 A3023 RMK A01 T00560040  RH  089%=      5-min Rain = 0
KOD1 091457Z 26002KT 06/04 A3023 RMK A01 T00560039  RH  089%=      5-min Rain = 0
KOD1 091458Z 26002KT 06/04 A3023 RMK A01 T00560040  RH  089%=      5-min Rain = 0
KOD1 091459Z 26001KT 06/04 A3023 RMK A01 T00560039  RH  089%=      5-min Rain = 0
KOD1 091500Z 25001KT 06/04 A3023 RMK A01 T00570040  RH  089%=      5-min Rain = 0
KOD1 091501Z 27002KT 06/04 A3023 RMK A01 T00590042  RH  089%=      5-min Rain = 0
KOD1 091502Z 25002KT 06/04 A3023 RMK A01 T00590042  RH  089%=      5-min Rain = 0
KOD1 091503Z 25001KT 06/04 A3023 RMK A01 T00590042  RH  089%=      5-min Rain = 0
KOD1 091504Z 25002KT 06/04 A3023 RMK A01 T00590041  RH  088%=      5-min Rain = 0
KOD1 091505Z 24002KT 06/04 A3023 RMK A01 T00600044  RH  089%=      5-min Rain = 0
KOD1 091506Z 24002KT 06/04 A3023 RMK A01 T00610044  RH  089%=      5-min Rain = 0
KOD1 091507Z 22002KT 06/04 A3023 RMK A01 T00600042  RH  088%=      5-min Rain = 0
KOD1 091508Z 21003KT 06/04 A3023 RMK A01 T00620044  RH  089%=      5-min Rain = 0
KOD1 091509Z 21003KT 06/05 A3023 RMK A01 T00630045  RH  088%=      5-min Rain = 0
KOD1 091510Z 22003KT 06/04 A3023 RMK A01 T00630044  RH  088%=      5-min Rain = 0
KOD1 091511Z 21003KT 06/04 A3023 RMK A01 T00620043  RH  088%=      5-min Rain = 0
KOD1 091512Z 20003KT 06/05 A3023 RMK A01 T00630046  RH  088%=      5-min Rain = 0
KOD1 091513Z 21004KT 07/05 A3023 RMK A01 T00650047  RH  088%=      5-min Rain = 0
KOD1 091514Z 22004KT 06/05 A3023 RMK A01 T00640045  RH  088%=      5-min Rain = 0
KOD1 091515Z 23003KT 06/04 A3023 RMK A01 T00630044  RH  087%=      5-min Rain = 0
KOD1 091516Z 22004KT 06/04 A3023 RMK A01 T00630044  RH  088%=      5-min Rain = 0
KOD1 091517Z 21003KT 06/04 A3023 RMK A01 T00630044  RH  088%=      5-min Rain = 0
KOD1 091518Z 22002KT 06/05 A3023 RMK A01 T00640046  RH  088%=      5-min Rain = 0
KOD1 091519Z 22003KT 07/05 A3023 RMK A01 T00650046  RH  088%=      5-min Rain = 0
KOD1 091520Z 22003KT 07/05 A3023 RMK A01 T00650046  RH  087%=      5-min Rain = 0
KOD1 091521Z 20003KT 07/05 A3023 RMK A01 T00660046  RH  087%=      5-min Rain = 0
KOD1 091522Z 19003KT 07/05 A3023 RMK A01 T00660046  RH  087%=      5-min Rain = 0
KOD1 091523Z 21004KT 07/05 A3023 RMK A01 T00690050  RH  088%=      5-min Rain = 0
KOD1 091524Z 21003KT 07/05 A3023 RMK A01 T00700050  RH  087%=      5-min Rain = 0
KOD1 091525Z 22004KT 07/05 A3023 RMK A01 T00710051  RH  087%=      5-min Rain = 0
KOD1 091526Z 22005KT 07/05 A3022 RMK A01 T00700048  RH  086%=      5-min Rain = 0
KOD1 091527Z 20005KT 07/05 A3022 RMK A01 T00710051  RH  087%=      5-min Rain = 0
KOD1 091528Z 21004KT 07/05 A3022 RMK A01 T00710051  RH  087%=      5-min Rain = 0
KOD1 091529Z 21004KT 07/05 A3022 RMK A01 T00720052  RH  087%=      5-min Rain = 0
KOD1 091530Z 21005KT 07/05 A3022 RMK A01 T00730052  RH  087%=      5-min Rain = 0
KOD1 091531Z 21005KT 07/05 A3023 RMK A01 T00740054  RH  087%=      5-min Rain = 0
KOD1 091532Z 21005KT 07/05 A3023 RMK A01 T00740054  RH  087%=      5-min Rain = 0
KOD1 091533Z 21005KT 08/05 A3023 RMK A01 T00750054  RH  086%=      5-min Rain = 0
KOD1 091534Z 21005KT 08/06 A3023 RMK A01 T00770056  RH  087%=      5-min Rain = 0
KOD1 091535Z 22005KT 08/06 A3023 RMK A01 T00780057  RH  086%=      5-min Rain = 0
KOD1 091536Z 22005KT 08/06 A3023 RMK A01 T00790057  RH  086%=      5-min Rain = 0
KOD1 091537Z 22005KT 08/06 A3023 RMK A01 T00810058  RH  085%=      5-min Rain = 0
KOD1 091538Z 22004KT 08/06 A3023 RMK A01 T00800056  RH  085%=      5-min Rain = 0
KOD1 091539Z 24005KT 08/06 A3023 RMK A01 T00810058  RH  085%=      5-min Rain = 0
KOD1 091540Z 23005KT 08/06 A3023 RMK A01 T00830060  RH  085%=      5-min Rain = 0
KOD1 091541Z 23004KT 08/06 A3023 RMK A01 T00840059  RH  085%=      5-min Rain = 0
KOD1 091542Z 24004KT 08/06 A3023 RMK A01 T00840058  RH  084%=      5-min Rain = 0
KOD1 091543Z 24003KT 09/06 A3023 RMK A01 T00850059  RH  084%=      5-min Rain = 0
KOD1 091544Z 25003KT 09/06 A3023 RMK A01 T00860060  RH  084%=      5-min Rain = 0
KOD1 091545Z 25002KT 09/06 A3023 RMK A01 T00870059  RH  083%=      5-min Rain = 0
KOD1 091546Z 23001KT 09/06 A3023 RMK A01 T00880061  RH  083%=      5-min Rain = 0
KOD1 091547Z 23002KT 09/06 A3023 RMK A01 T00900061  RH  083%=      5-min Rain = 0
KOD1 091548Z 23003KT 09/06 A3024 RMK A01 T00900060  RH  081%=      5-min Rain = 0
KOD1 091549Z 25001KT 09/06 A3024 RMK A01 T00900061  RH  082%=      5-min Rain = 0
KOD1 091550Z 31002KT 09/06 A3024 RMK A01 T00920062  RH  082%=      5-min Rain = 0
KOD1 091551Z 31003KT 09/06 A3024 RMK A01 T00930062  RH  081%=      5-min Rain = 0
KOD1 091552Z 31002KT 09/06 A3024 RMK A01 T00940061  RH  080%=      5-min Rain = 0
KOD1 091553Z 30001KT 09/06 A3024 RMK A01 T00940059  RH  079%=      5-min Rain = 0
KOD1 091554Z 27001KT 10/06 A3024 RMK A01 T00960063  RH  080%=      5-min Rain = 0
KOD1 091555Z 30001KT 10/06 A3024 RMK A01 T00980063  RH  079%=      5-min Rain = 0
KOD1 091556Z 30002KT 10/06 A3024 RMK A01 T00990061  RH  078%=      5-min Rain = 0
KOD1 091557Z 25003KT 10/06 A3024 RMK A01 T00980060  RH  077%=      5-min Rain = 0
KOD1 091558Z 26003KT 10/06 A3024 RMK A01 T00970059  RH  077%=      5-min Rain = 0
KOD1 091559Z 26003KT 10/06 A3024 RMK A01 T00960059  RH  078%=      5-min Rain = 0
KOD1 091600Z 27003KT 10/06 A3024 RMK A01 T00950060  RH  078%=      5-min Rain = 0
KOD1 091601Z 26003KT 10/06 A3024 RMK A01 T00950058  RH  078%=      5-min Rain = 0
KOD1 091602Z 25002KT 09/06 A3024 RMK A01 T00930057  RH  078%=      5-min Rain = 0
KOD1 091603Z 24001KT 09/06 A3024 RMK A01 T00940060  RH  079%=      5-min Rain = 0
KOD1 091604Z 27003KT 10/06 A3024 RMK A01 T00970062  RH  079%=      5-min Rain = 0
KOD1 091605Z 28003KT 10/06 A3024 RMK A01 T00970060  RH  078%=      5-min Rain = 0
KOD1 091606Z 30003KT 10/06 A3024 RMK A01 T00970060  RH  077%=      5-min Rain = 0
KOD1 091607Z 30002KT 10/06 A3024 RMK A01 T00970060  RH  078%=      5-min Rain = 0
KOD1 091608Z 31001KT 10/06 A3024 RMK A01 T00980061  RH  078%=      5-min Rain = 0
KOD1 091609Z 17000KT 10/06 A3024 RMK A01 T01000064  RH  078%=      5-min Rain = 0
KOD1 091610Z 22003KT 10/07 A3023 RMK A01 T01030066  RH  077%=      5-min Rain = 0
KOD1 091611Z 23003KT 10/06 A3023 RMK A01 T01030062  RH  076%=      5-min Rain = 0
KOD1 091612Z 21002KT 10/06 A3023 RMK A01 T01020062  RH  076%=      5-min Rain = 0
KOD1 091613Z 21003KT 10/06 A3023 RMK A01 T01020061  RH  076%=      5-min Rain = 0
KOD1 091614Z 21003KT 10/06 A3023 RMK A01 T01010061  RH  077%=      5-min Rain = 0
KOD1 091615Z 23002KT 10/07 A3023 RMK A01 T01020065  RH  078%=      5-min Rain = 0
KOD1 091616Z 20003KT 10/06 A3023 RMK A01 T01020063  RH  076%=      5-min Rain = 0
KOD1 091617Z 20004KT 10/07 A3023 RMK A01 T01030066  RH  077%=      5-min Rain = 0
KOD1 091618Z 19002KT 10/06 A3023 RMK A01 T01040062  RH  076%=      5-min Rain = 0
KOD1 091619Z 19002KT 10/06 A3023 RMK A01 T01040062  RH  075%=      5-min Rain = 0
KOD1 091620Z 18002KT 11/06 A3023 RMK A01 T01050063  RH  076%=      5-min Rain = 0
KOD1 091621Z 21002KT 11/06 A3023 RMK A01 T01060064  RH  075%=      5-min Rain = 0
KOD1 091622Z 20003KT 11/06 A3023 RMK A01 T01070064  RH  075%=      5-min Rain = 0
KOD1 091623Z 21004KT 11/06 A3023 RMK A01 T01060063  RH  075%=      5-min Rain = 0
KOD1 091624Z 22003KT 11/06 A3023 RMK A01 T01050064  RH  076%=      5-min Rain = 0
KOD1 091625Z 21004KT 11/07 A3023 RMK A01 T01060066  RH  076%=      5-min Rain = 0
KOD1 091626Z 20004KT 11/06 A3023 RMK A01 T01050064  RH  076%=      5-min Rain = 0
KOD1 091627Z 20003KT 10/06 A3023 RMK A01 T01040062  RH  075%=      5-min Rain = 0
KOD1 091628Z 21003KT 10/06 A3023 RMK A01 T01040064  RH  076%=      5-min Rain = 0
KOD1 091629Z 21004KT 11/07 A3023 RMK A01 T01050066  RH  077%=      5-min Rain = 0
KOD1 091630Z 21004KT 11/07 A3023 RMK A01 T01070067  RH  077%=      5-min Rain = 0
KOD1 091631Z 20004KT 11/07 A3022 RMK A01 T01080069  RH  077%=      5-min Rain = 0
KOD1 091632Z 21003KT 11/07 A3022 RMK A01 T01090068  RH  076%=      5-min Rain = 0
KOD1 091633Z 20002KT 11/07 A3022 RMK A01 T01080065  RH  075%=      5-min Rain = 0
KOD1 091634Z 22002KT 11/07 A3022 RMK A01 T01080066  RH  075%=      5-min Rain = 0
KOD1 091635Z 23003KT 11/07 A3022 RMK A01 T01080066  RH  075%=      5-min Rain = 0
KOD1 091636Z 24003KT 11/07 A3022 RMK A01 T01090069  RH  076%=      5-min Rain = 0
KOD1 091637Z 22004KT 11/07 A3022 RMK A01 T01100068  RH  075%=      5-min Rain = 0
KOD1 091638Z 23004KT 11/07 A3022 RMK A01 T01100069  RH  076%=      5-min Rain = 0
KOD1 091639Z 23003KT 11/07 A3022 RMK A01 T01110068  RH  075%=      5-min Rain = 0
KOD1 091640Z 22003KT 11/07 A3022 RMK A01 T01100068  RH  075%=      5-min Rain = 0
KOD1 091641Z 22003KT 11/07 A3022 RMK A01 T01100067  RH  075%=      5-min Rain = 0
KOD1 091642Z 25002KT 11/07 A3022 RMK A01 T01100067  RH  075%=      5-min Rain = 0
KOD1 091643Z 30002KT 11/07 A3022 RMK A01 T01120069  RH  075%=      5-min Rain = 0
KOD1 091644Z 26003KT 11/07 A3022 RMK A01 T01140069  RH  074%=      5-min Rain = 0
KOD1 091645Z 25003KT 11/07 A3022 RMK A01 T01140069  RH  074%=      5-min Rain = 0
KOD1 091646Z 20004KT 12/07 A3022 RMK A01 T01150072  RH  074%=      5-min Rain = 0
KOD1 091647Z 19003KT 12/07 A3022 RMK A01 T01150070  RH  074%=      5-min Rain = 0
KOD1 091648Z 18003KT 11/07 A3022 RMK A01 T01140070  RH  074%=      5-min Rain = 0
KOD1 091649Z 19003KT 12/07 A3022 RMK A01 T01150072  RH  075%=      5-min Rain = 0
KOD1 091650Z 20004KT 12/07 A3022 RMK A01 T01170073  RH  075%=      5-min Rain = 0
KOD1 091651Z 21005KT 12/07 A3022 RMK A01 T01180072  RH  074%=      5-min Rain = 0
KOD1 091652Z 22004KT 12/07 A3022 RMK A01 T01170070  RH  073%=      5-min Rain = 0
KOD1 091653Z 22005KT 12/07 A3022 RMK A01 T01170072  RH  074%=      5-min Rain = 0
KOD1 091654Z 23005KT 12/07 A3022 RMK A01 T01180071  RH  073%=      5-min Rain = 0
KOD1 091655Z 22005KT 12/07 A3022 RMK A01 T01190072  RH  073%=      5-min Rain = 0
KOD1 091656Z 22005KT 12/07 A3022 RMK A01 T01200071  RH  072%=      5-min Rain = 0
KOD1 091657Z 22005KT 12/07 A3022 RMK A01 T01210071  RH  072%=      5-min Rain = 0
KOD1 091658Z 22004KT 12/07 A3022 RMK A01 T01210071  RH  071%=      5-min Rain = 0
KOD1 091659Z 24003KT 12/07 A3022 RMK A01 T01210070  RH  071%=      5-min Rain = 0
KOD1 091700Z 23003KT 12/07 A3022 RMK A01 T01200070  RH  071%=      5-min Rain = 0
KOD1 091701Z 22002KT 12/07 A3022 RMK A01 T01210072  RH  072%=      5-min Rain = 0
KOD1 091702Z 23004KT 12/08 A3022 RMK A01 T01240075  RH  072%=      5-min Rain = 0
KOD1 091703Z 23004KT 13/07 A3022 RMK A01 T01250073  RH  071%=      5-min Rain = 0
KOD1 091704Z 23005KT 13/08 A3022 RMK A01 T01270075  RH  071%=      5-min Rain = 0
KOD1 091705Z 23004KT 13/07 A3022 RMK A01 T01260071  RH  069%=      5-min Rain = 0
KOD1 091706Z 21003KT 13/07 A3022 RMK A01 T01250072  RH  070%=      5-min Rain = 0
KOD1 091707Z 25004KT 13/07 A3022 RMK A01 T01250074  RH  071%=      5-min Rain = 0
KOD1 091708Z 24005KT 13/07 A3022 RMK A01 T01270074  RH  070%=      5-min Rain = 0
KOD1 091709Z 24004KT 13/08 A3022 RMK A01 T01290078  RH  071%=      5-min Rain = 0
KOD1 091710Z 23004KT 13/08 A3022 RMK A01 T01310075  RH  069%=      5-min Rain = 0
KOD1 091711Z 22004KT 13/08 A3022 RMK A01 T01310075  RH  069%=      5-min Rain = 0
KOD1 091712Z 23005KT 13/07 A3022 RMK A01 T01300074  RH  069%=      5-min Rain = 0
KOD1 091713Z 24004KT 13/07 A3022 RMK A01 T01290073  RH  069%=      5-min Rain = 0
KOD1 091714Z 24003KT 13/08 A3022 RMK A01 T01300075  RH  069%=      5-min Rain = 0
KOD1 091715Z 23004KT 13/08 A3021 RMK A01 T01310076  RH  069%=      5-min Rain = 0
KOD1 091716Z 24005KT 13/08 A3021 RMK A01 T01320077  RH  069%=      5-min Rain = 0
KOD1 091717Z 22005KT 13/08 A3021 RMK A01 T01320076  RH  068%=      5-min Rain = 0
KOD1 091718Z 24005KT 13/08 A3021 RMK A01 T01320076  RH  069%=      5-min Rain = 0
KOD1 091719Z 24005KT 13/08 A3021 RMK A01 T01330077  RH  069%=      5-min Rain = 0
KOD1 091720Z 23006KT 14/08 A3021 RMK A01 T01350077  RH  068%=      5-min Rain = 0
KOD1 091721Z 22005KT 13/08 A3021 RMK A01 T01340078  RH  069%=      5-min Rain = 0
KOD1 091722Z 24005KT 14/08 A3021 RMK A01 T01350078  RH  069%=      5-min Rain = 0
KOD1 091723Z 23006KT 13/08 A3021 RMK A01 T01340076  RH  068%=      5-min Rain = 0
KOD1 091724Z 23004KT 13/08 A3021 RMK A01 T01340078  RH  069%=      5-min Rain = 0
KOD1 091725Z 21003KT 13/08 A3021 RMK A01 T01340077  RH  068%=      5-min Rain = 0
KOD1 091726Z 23004KT 14/08 A302 RMK A01 T01360081  RH  069%=      5-min Rain = 0
KOD1 091727Z 22006KT 14/09 A302 RMK A01 T01400085  RH  069%=      5-min Rain = 0
KOD1 091728Z 21005KT 14/08 A302 RMK A01 T01420081  RH  067%=      5-min Rain = 0
KOD1 091729Z 22006KT 14/08 A302 RMK A01 T01400079  RH  067%=      5-min Rain = 0
KOD1 091730Z 22006KT 14/08 A302 RMK A01 T01390081  RH  068%=      5-min Rain = 0
KOD1 091731Z 21005KT 14/08 A302 RMK A01 T01410082  RH  067%=      5-min Rain = 0
KOD1 091732Z 20006KT 14/08 A302 RMK A01 T01420081  RH  067%=      5-min Rain = 0
KOD1 091733Z 21007KT 14/08 A302 RMK A01 T01420082  RH  067%=      5-min Rain = 0
KOD1 091734Z 22007KT 14/08 A302 RMK A01 T01430084  RH  068%=      5-min Rain = 0
KOD1 091735Z 23004KT 14/08 A302 RMK A01 T01440082  RH  066%=      5-min Rain = 0
KOD1 091736Z 21006KT 15/09 A3019 RMK A01 T01460086  RH  067%=      5-min Rain = 0
KOD1 091737Z 21005KT 15/08 A3019 RMK A01 T01460084  RH  066%=      5-min Rain = 0
KOD1 091738Z 23005KT 15/09 A3019 RMK A01 T01470086  RH  067%=      5-min Rain = 0
KOD1 091739Z 23006KT 15/09 A3019 RMK A01 T01480085  RH  066%=      5-min Rain = 0
KOD1 091740Z 22006KT 15/08 A3019 RMK A01 T01470084  RH  066%=      5-min Rain = 0
KOD1 091741Z 22005KT 15/08 A3019 RMK A01 T01470083  RH  065%=      5-min Rain = 0
KOD1 091742Z 21006KT 15/08 A3019 RMK A01 T01470084  RH  066%=      5-min Rain = 0
KOD1 091743Z 20007KT 15/09 A3019 RMK A01 T01500088  RH  067%=      5-min Rain = 0
KOD1 091744Z 18007KT 15/09 A3019 RMK A01 T01500086  RH  065%=      5-min Rain = 0
KOD1 091745Z 20007KT 15/09 A3019 RMK A01 T01520087  RH  065%=      5-min Rain = 0
KOD1 091746Z 21007KT 15/09 A3019 RMK A01 T01530086  RH  064%=      5-min Rain = 0
KOD1 091747Z 21007KT 15/09 A3019 RMK A01 T01520085  RH  064%=      5-min Rain = 0
KOD1 091748Z 20007KT 16/09 A3019 RMK A01 T01550090  RH  065%=      5-min Rain = 0
KOD1 091749Z 19007KT 16/09 A3019 RMK A01 T01560089  RH  064%=      5-min Rain = 0
KOD1 091750Z 19007KT 16/09 A3019 RMK A01 T01560087  RH  063%=      5-min Rain = 0
KOD1 091751Z 21007KT 16/09 A3019 RMK A01 T01560089  RH  064%=      5-min Rain = 0
KOD1 091752Z 22006KT 16/09 A3018 RMK A01 T01570088  RH  063%=      5-min Rain = 0
KOD1 091753Z 19005KT 16/09 A3018 RMK A01 T01570088  RH  063%=      5-min Rain = 0
KOD1 091754Z 21006KT 16/09 A3018 RMK A01 T01580089  RH  063%=      5-min Rain = 0
KOD1 091755Z 20008KT 16/09 A3018 RMK A01 T01610092  RH  064%=      5-min Rain = 0
KOD1 091756Z 21009KT 16/09 A3018 RMK A01 T01610092  RH  063%=      5-min Rain = 0
KOD1 091757Z 21010KT 16/09 A3018 RMK A01 T01600089  RH  063%=      5-min Rain = 0
KOD1 091758Z 21009KT 16/09 A3018 RMK A01 T01590091  RH  064%=      5-min Rain = 0
KOD1 091759Z 21009KT 16/09 A3018 RMK A01 T01600091  RH  064%=      5-min Rain = 0
KOD1 091800Z 19008KT 16/09 A3018 RMK A01 T01580088  RH  063%=      5-min Rain = 0
KOD1 091801Z 20007KT 16/09 A3018 RMK A01 T01590091  RH  064%=      5-min Rain = 0
KOD1 091802Z 19010KT 16/09 A3017 RMK A01 T01610094  RH  064%=      5-min Rain = 0
KOD1 091803Z 19007KT 16/09 A3017 RMK A01 T01630094  RH  063%=      5-min Rain = 0
KOD1 091804Z 21008KT 17/09 A3017 RMK A01 T01650094  RH  063%=      5-min Rain = 0
KOD1 091805Z 21008KT 17/09 A3017 RMK A01 T01650093  RH  063%=      5-min Rain = 0
KOD1 091806Z 21008KT 16/09 A3017 RMK A01 T01640092  RH  062%=      5-min Rain = 0
KOD1 091807Z 21007KT 16/09 A3017 RMK A01 T01630094  RH  064%=      5-min Rain = 0
KOD1 091808Z 20007KT 16/10 A3017 RMK A01 T01630095  RH  064%=      5-min Rain = 0
KOD1 091809Z 21008KT 17/10 A3017 RMK A01 T01650095  RH  063%=      5-min Rain = 0
KOD1 091810Z 21006KT 17/09 A3017 RMK A01 T01660093  RH  062%=      5-min Rain = 0
KOD1 091811Z 21008KT 17/10 A3017 RMK A01 T01680098  RH  063%=      5-min Rain = 0
KOD1 091812Z 21008KT 17/10 A3017 RMK A01 T01680095  RH  062%=      5-min Rain = 0
KOD1 091813Z 20007KT 17/10 A3017 RMK A01 T01690096  RH  062%=      5-min Rain = 0
KOD1 091814Z 21007KT 17/10 A3017 RMK A01 T01700096  RH  062%=      5-min Rain = 0
KOD1 091815Z 21007KT 17/09 A3017 RMK A01 T01700094  RH  061%=      5-min Rain = 0
KOD1 091816Z 18006KT 17/09 A3016 RMK A01 T01690094  RH  061%=      5-min Rain = 0
KOD1 091817Z 20006KT 17/09 A3016 RMK A01 T01700093  RH  060%=      5-min Rain = 0
KOD1 091818Z 21007KT 17/09 A3016 RMK A01 T01710093  RH  060%=      5-min Rain = 0
KOD1 091819Z 21006KT 17/09 A3016 RMK A01 T01700093  RH  060%=      5-min Rain = 0
KOD1 091820Z 21007KT 17/09 A3016 RMK A01 T01700094  RH  061%=      5-min Rain = 0
KOD1 091821Z 22009KT 17/10 A3016 RMK A01 T01720096  RH  061%=      5-min Rain = 0
KOD1 091822Z 21006KT 17/09 A3016 RMK A01 T01720091  RH  059%=      5-min Rain = 0
KOD1 091823Z 21006KT 17/10 A3016 RMK A01 T01720096  RH  061%=      5-min Rain = 0
KOD1 091824Z 21005KT 17/09 A3016 RMK A01 T01720094  RH  060%=      5-min Rain = 0
KOD1 091825Z 22008KT 17/09 A3016 RMK A01 T01730094  RH  060%=      5-min Rain = 0
KOD1 091826Z 22007KT 18/10 A3016 RMK A01 T01750095  RH  059%=      5-min Rain = 0
KOD1 091827Z 20005KT 18/09 A3016 RMK A01 T01750094  RH  059%=      5-min Rain = 0
KOD1 091828Z 21007KT 18/10 A3016 RMK A01 T01770100  RH  060%=      5-min Rain = 0
KOD1 091829Z 21007KT 18/10 A3016 RMK A01 T01800096  RH  058%=      5-min Rain = 0
KOD1 091830Z 19007KT 18/10 A3015 RMK A01 T01800100  RH  059%=      5-min Rain = 0
KOD1 091831Z 20007KT 18/10 A3015 RMK A01 T01820097  RH  058%=      5-min Rain = 0
KOD1 091832Z 20008KT 18/10 A3015 RMK A01 T01810097  RH  058%=      5-min Rain = 0
KOD1 091833Z 18008KT 18/10 A3015 RMK A01 T01810095  RH  057%=      5-min Rain = 0
KOD1 091834Z 19006KT 18/09 A3015 RMK A01 T01800093  RH  057%=      5-min Rain = 0
KOD1 091835Z 19007KT 18/10 A3015 RMK A01 T01800095  RH  058%=      5-min Rain = 0
KOD1 091836Z 21008KT 18/10 A3015 RMK A01 T01820100  RH  059%=      5-min Rain = 0
KOD1 091837Z 21008KT 19/10 A3015 RMK A01 T01850102  RH  058%=      5-min Rain = 0
KOD1 091838Z 22008KT 19/10 A3015 RMK A01 T01860097  RH  056%=      5-min Rain = 0
KOD1 091839Z 22007KT 18/09 A3015 RMK A01 T01840093  RH  055%=      5-min Rain = 0
KOD1 091840Z 21007KT 19/10 A3015 RMK A01 T01850097  RH  057%=      5-min Rain = 0
KOD1 091841Z 21008KT 19/10 A3015 RMK A01 T01850097  RH  056%=      5-min Rain = 0
KOD1 091842Z 19008KT 19/10 A3015 RMK A01 T01850095  RH  056%=      5-min Rain = 0
KOD1 091843Z 18006KT 18/09 A3015 RMK A01 T01840093  RH  055%=      5-min Rain = 0
KOD1 091844Z 18005KT 18/09 A3015 RMK A01 T01830093  RH  056%=      5-min Rain = 0
KOD1 091845Z 19007KT 18/10 A3015 RMK A01 T01840096  RH  056%=      5-min Rain = 0
KOD1 091846Z 18006KT 19/10 A3015 RMK A01 T01860095  RH  056%=      5-min Rain = 0
KOD1 091847Z 19008KT 19/10 A3015 RMK A01 T01870096  RH  055%=      5-min Rain = 0
KOD1 091848Z 20007KT 19/10 A3015 RMK A01 T01900098  RH  055%=      5-min Rain = 0
KOD1 091849Z 19007KT 19/09 A3015 RMK A01 T01890093  RH  054%=      5-min Rain = 0
KOD1 091850Z 18007KT 19/10 A3015 RMK A01 T01870096  RH  055%=      5-min Rain = 0
KOD1 091851Z 18007KT 19/10 A3015 RMK A01 T01890097  RH  055%=      5-min Rain = 0
KOD1 091852Z 20007KT 19/10 A3015 RMK A01 T01890097  RH  055%=      5-min Rain = 0
KOD1 091853Z 19005KT 19/09 A3015 RMK A01 T01890094  RH  054%=      5-min Rain = 0
KOD1 091854Z 18004KT 19/10 A3015 RMK A01 T01890095  RH  054%=      5-min Rain = 0
KOD1 091855Z 18006KT 19/10 A3015 RMK A01 T01900097  RH  055%=      5-min Rain = 0
KOD1 091856Z 17005KT 19/09 A3015 RMK A01 T01890093  RH  054%=      5-min Rain = 0
KOD1 091857Z 19007KT 19/10 A3014 RMK A01 T01880095  RH  055%=      5-min Rain = 0
KOD1 091858Z 20008KT 19/10 A3014 RMK A01 T01890096  RH  055%=      5-min Rain = 0
KOD1 091859Z 18007KT 19/10 A3014 RMK A01 T01900099  RH  056%=      5-min Rain = 0
KOD1 091900Z 17007KT 19/10 A3014 RMK A01 T01910095  RH  054%=      5-min Rain = 0
KOD1 091901Z 17007KT 19/10 A3014 RMK A01 T01910099  RH  055%=      5-min Rain = 0
KOD1 091902Z 19005KT 19/10 A3014 RMK A01 T01930099  RH  054%=      5-min Rain = 0
KOD1 091903Z 18007KT 19/10 A3014 RMK A01 T01930096  RH  053%=      5-min Rain = 0
KOD1 091904Z 18009KT 19/10 A3014 RMK A01 T01920098  RH  054%=      5-min Rain = 0
KOD1 091905Z 19007KT 19/10 A3014 RMK A01 T01920095  RH  053%=      5-min Rain = 0
KOD1 091906Z 18005KT 19/09 A3014 RMK A01 T01900093  RH  053%=      5-min Rain = 0
KOD1 091907Z 17005KT 19/10 A3014 RMK A01 T01910096  RH  054%=      5-min Rain = 0
KOD1 091908Z 18005KT 19/10 A3014 RMK A01 T01920095  RH  053%=      5-min Rain = 0
KOD1 091909Z 19004KT 19/09 A3014 RMK A01 T01920094  RH  053%=      5-min Rain = 0
KOD1 091910Z 20005KT 19/09 A3014 RMK A01 T01910093  RH  053%=      5-min Rain = 0
KOD1 091911Z 21005KT 19/10 A3014 RMK A01 T01930095  RH  053%=      5-min Rain = 0
KOD1 091912Z 19005KT 19/10 A3014 RMK A01 T01930095  RH  053%=      5-min Rain = 0
KOD1 091913Z 19005KT 20/10 A3014 RMK A01 T01950097  RH  053%=      5-min Rain = 0
KOD1 091914Z 17004KT 20/10 A3014 RMK A01 T01960098  RH  053%=      5-min Rain = 0
KOD1 091915Z 18007KT 20/10 A3014 RMK A01 T01970096  RH  052%=      5-min Rain = 0
KOD1 091916Z 17007KT 20/10 A3014 RMK A01 T01970098  RH  053%=      5-min Rain = 0
KOD1 091917Z 16005KT 20/10 A3014 RMK A01 T01970096  RH  052%=      5-min Rain = 0
KOD1 091918Z 18006KT 20/10 A3013 RMK A01 T01970099  RH  053%=      5-min Rain = 0
KOD1 091919Z 19005KT 20/10 A3013 RMK A01 T01990096  RH  052%=      5-min Rain = 0
KOD1 091920Z 18004KT 20/10 A3013 RMK A01 T01980096  RH  052%=      5-min Rain = 0
KOD1 091921Z 17007KT 20/10 A3013 RMK A01 T01990100  RH  053%=      5-min Rain = 0
KOD1 091922Z 18004KT 20/10 A3013 RMK A01 T01990096  RH  051%=      5-min Rain = 0
KOD1 091923Z 17005KT 20/10 A3013 RMK A01 T02000096  RH  051%=      5-min Rain = 0
KOD1 091924Z 18007KT 20/10 A3013 RMK A01 T02020100  RH  052%=      5-min Rain = 0
KOD1 091925Z 20007KT 20/10 A3013 RMK A01 T02030098  RH  051%=      5-min Rain = 0
KOD1 091926Z 20005KT 20/10 A3013 RMK A01 T02010095  RH  051%=      5-min Rain = 0
KOD1 091927Z 22004KT 20/10 A3013 RMK A01 T02010097  RH  051%=      5-min Rain = 0
KOD1 091928Z 19004KT 20/10 A3013 RMK A01 T02020097  RH  051%=      5-min Rain = 0
KOD1 091929Z 19003KT 20/10 A3013 RMK A01 T02020095  RH  050%=      5-min Rain = 0
KOD1 091930Z 18003KT 20/09 A3013 RMK A01 T02010093  RH  050%=      5-min Rain = 0
KOD1 091931Z 19004KT 20/10 A3013 RMK A01 T02020097  RH  051%=      5-min Rain = 0
KOD1 091932Z 19006KT 20/10 A3013 RMK A01 T02040097  RH  050%=      5-min Rain = 0
KOD1 091933Z 20005KT 20/09 A3013 RMK A01 T02030094  RH  050%=      5-min Rain = 0
KOD1 091934Z 21005KT 20/10 A3013 RMK A01 T02040096  RH  050%=      5-min Rain = 0
KOD1 091935Z 21006KT 20/10 A3013 RMK A01 T02040095  RH  049%=      5-min Rain = 0
KOD1 091936Z 22005KT 20/10 A3013 RMK A01 T02020095  RH  050%=      5-min Rain = 0
KOD1 091937Z 20005KT 20/09 A3013 RMK A01 T02020094  RH  050%=      5-min Rain = 0
KOD1 091938Z 18005KT 20/10 A3013 RMK A01 T02020097  RH  051%=      5-min Rain = 0
KOD1 091939Z 20004KT 20/10 A3013 RMK A01 T02040098  RH  050%=      5-min Rain = 0
KOD1 091940Z 17004KT 21/10 A3012 RMK A01 T02050098  RH  050%=      5-min Rain = 0
KOD1 091941Z 18004KT 21/10 A3012 RMK A01 T02070099  RH  050%=      5-min Rain = 0
KOD1 091942Z 21006KT 21/10 A3012 RMK A01 T02080098  RH  049%=      5-min Rain = 0
KOD1 091943Z 22004KT 21/09 A3012 RMK A01 T02060094  RH  048%=      5-min Rain = 0
KOD1 091944Z 20003KT 20/09 A3012 RMK A01 T02030092  RH  049%=      5-min Rain = 0
KOD1 091945Z 20004KT 20/09 A3012 RMK A01 T02030092  RH  049%=      5-min Rain = 0
KOD1 091946Z 22006KT 21/09 A3012 RMK A01 T02050093  RH  049%=      5-min Rain = 0
KOD1 091947Z 22005KT 21/09 A3012 RMK A01 T02050094  RH  049%=      5-min Rain = 0
KOD1 091948Z 19005KT 21/10 A3012 RMK A01 T02070096  RH  049%=      5-min Rain = 0
KOD1 091949Z 17003KT 21/10 A3012 RMK A01 T02080098  RH  049%=      5-min Rain = 0
KOD1 091950Z 16003KT 21/10 A3012 RMK A01 T02090099  RH  049%=      5-min Rain = 0
KOD1 091951Z 18002KT 21/10 A3012 RMK A01 T02100097  RH  048%=      5-min Rain = 0
KOD1 091952Z 21005KT 21/10 A3012 RMK A01 T02110097  RH  048%=      5-min Rain = 0
KOD1 091953Z 23003KT 21/09 A3012 RMK A01 T02080093  RH  048%=      5-min Rain = 0
KOD1 091954Z 17002KT 21/10 A3012 RMK A01 T02070095  RH  048%=      5-min Rain = 0
KOD1 091955Z 19003KT 21/10 A3012 RMK A01 T02090096  RH  048%=      5-min Rain = 0
KOD1 091956Z 22005KT 21/10 A3012 RMK A01 T02100096  RH  048%=      5-min Rain = 0
KOD1 091957Z 23005KT 21/10 A3012 RMK A01 T02110095  RH  047%=      5-min Rain = 0
KOD1 091958Z 22005KT 21/09 A3012 RMK A01 T02100092  RH  047%=      5-min Rain = 0
KOD1 091959Z 21006KT 21/09 A3012 RMK A01 T02110094  RH  047%=      5-min Rain = 0
KOD1 092000Z 21005KT 21/09 A3012 RMK A01 T02100094  RH  047%=      5-min Rain = 0
KOD1 092001Z 21005KT 21/09 A3012 RMK A01 T02090094  RH  048%=      5-min Rain = 0
KOD1 092002Z 20005KT 21/10 A3012 RMK A01 T02100097  RH  048%=      5-min Rain = 0
KOD1 092003Z 20007KT 21/10 A3012 RMK A01 T02110099  RH  049%=      5-min Rain = 0
KOD1 092004Z 21008KT 21/10 A3011 RMK A01 T02120097  RH  048%=      5-min Rain = 0
KOD1 092005Z 20007KT 21/10 A3012 RMK A01 T02110096  RH  048%=      5-min Rain = 0
KOD1 092006Z 20005KT 21/10 A3012 RMK A01 T02110098  RH  048%=      5-min Rain = 0
KOD1 092007Z 21004KT 21/10 A3011 RMK A01 T02130096  RH  047%=      5-min Rain = 0
KOD1 092008Z 21003KT 21/10 A3011 RMK A01 T02130096  RH  047%=      5-min Rain = 0
KOD1 092009Z 23004KT 21/10 A3011 RMK A01 T02140097  RH  047%=      5-min Rain = 0
KOD1 092010Z 19005KT 21/10 A3011 RMK A01 T02140100  RH  048%=      5-min Rain = 0
KOD1 092011Z 18006KT 21/10 A3011 RMK A01 T02140099  RH  048%=      5-min Rain = 0
KOD1 092012Z 16007KT 22/10 A3011 RMK A01 T02150100  RH  048%=      5-min Rain = 0
KOD1 092013Z 17006KT 21/10 A3011 RMK A01 T02130095  RH  047%=      5-min Rain = 0
KOD1 092014Z 17003KT 21/10 A3011 RMK A01 T02120097  RH  048%=      5-min Rain = 0
KOD1 092015Z 17003KT 21/10 A3011 RMK A01 T02140100  RH  048%=      5-min Rain = 0
KOD1 092016Z 18006KT 22/10 A3011 RMK A01 T02170100  RH  047%=      5-min Rain = 0
KOD1 092017Z 18006KT 22/10 A3011 RMK A01 T02180098  RH  046%=      5-min Rain = 0
KOD1 092018Z 19006KT 22/10 A3011 RMK A01 T02190100  RH  047%=      5-min Rain = 0
KOD1 092019Z 19006KT 22/10 A3011 RMK A01 T02190099  RH  046%=      5-min Rain = 0
KOD1 092020Z 19006KT 22/10 A3011 RMK A01 T02190097  RH  046%=      5-min Rain = 0
KOD1 092021Z 18007KT 22/10 A3011 RMK A01 T02190100  RH  047%=      5-min Rain = 0
KOD1 092022Z 19006KT 22/10 A3011 RMK A01 T02200099  RH  046%=      5-min Rain = 0
KOD1 092023Z 19005KT 22/10 A3011 RMK A01 T02200096  RH  045%=      5-min Rain = 0
KOD1 092024Z 18007KT 22/10 A3011 RMK A01 T02180096  RH  046%=      5-min Rain = 0
KOD1 092025Z 18007KT 22/10 A3011 RMK A01 T02170098  RH  047%=      5-min Rain = 0
KOD1 092026Z 18007KT 22/10 A3011 RMK A01 T02160099  RH  047%=      5-min Rain = 0
KOD1 092027Z 17006KT 22/10 A3011 RMK A01 T02160097  RH  047%=      5-min Rain = 0
KOD1 092028Z 16005KT 22/10 A3011 RMK A01 T02160099  RH  047%=      5-min Rain = 0
KOD1 092029Z 18004KT 22/10 A3011 RMK A01 T02170098  RH  047%=      5-min Rain = 0
KOD1 092030Z 18002KT 22/10 A3011 RMK A01 T02170096  RH  046%=      5-min Rain = 0
KOD1 092031Z 20003KT 22/10 A3011 RMK A01 T02180097  RH  046%=      5-min Rain = 0
KOD1 092032Z 20004KT 22/10 A3011 RMK A01 T02180097  RH  046%=      5-min Rain = 0
KOD1 092033Z 18006KT 22/10 A3011 RMK A01 T02180098  RH  046%=      5-min Rain = 0
KOD1 092034Z 19007KT 22/10 A3011 RMK A01 T02190098  RH  046%=      5-min Rain = 0
KOD1 092035Z 20008KT 22/10 A3011 RMK A01 T02190098  RH  046%=      5-min Rain = 0
KOD1 092036Z 21007KT 22/10 A3011 RMK A01 T02180099  RH  047%=      5-min Rain = 0
KOD1 092037Z 20007KT 22/10 A3011 RMK A01 T02180100  RH  047%=      5-min Rain = 0
KOD1 092038Z 20006KT 22/10 A3011 RMK A01 T02170097  RH  046%=      5-min Rain = 0
KOD1 092039Z 19006KT 22/10 A301 RMK A01 T02180098  RH  046%=      5-min Rain = 0
KOD1 092040Z 19006KT 22/10 A301 RMK A01 T02190095  RH  045%=      5-min Rain = 0
KOD1 092041Z 18006KT 22/10 A301 RMK A01 T02210096  RH  045%=      5-min Rain = 0
KOD1 092042Z 18007KT 22/09 A301 RMK A01 T02220094  RH  044%=      5-min Rain = 0
KOD1 092043Z 19005KT 22/10 A301 RMK A01 T02220095  RH  044%=      5-min Rain = 0
KOD1 092044Z 20006KT 22/10 A301 RMK A01 T02220098  RH  045%=      5-min Rain = 0
KOD1 092045Z 17007KT 22/10 A301 RMK A01 T02220097  RH  045%=      5-min Rain = 0
KOD1 092046Z 18007KT 22/10 A301 RMK A01 T02210096  RH  045%=      5-min Rain = 0
KOD1 092047Z 21007KT 22/09 A301 RMK A01 T02210094  RH  044%=      5-min Rain = 0
KOD1 092048Z 20006KT 22/09 A301 RMK A01 T02210092  RH  044%=      5-min Rain = 0
KOD1 092049Z 21005KT 22/09 A301 RMK A01 T02220090  RH  043%=      5-min Rain = 0
KOD1 092050Z 21005KT 22/09 A301 RMK A01 T02220092  RH  043%=      5-min Rain = 0
KOD1 092051Z 21004KT 22/09 A301 RMK A01 T02230091  RH  043%=      5-min Rain = 0
KOD1 092052Z 20005KT 22/10 A301 RMK A01 T02230095  RH  044%=      5-min Rain = 0
KOD1 092053Z 20006KT 22/10 A301 RMK A01 T02240098  RH  045%=      5-min Rain = 0
KOD1 092054Z 21009KT 23/10 A301 RMK A01 T02250099  RH  045%=      5-min Rain = 0
KOD1 092055Z 21008KT 22/10 A301 RMK A01 T02240095  RH  044%=      5-min Rain = 0
KOD1 092056Z 20009KT 22/09 A301 RMK A01 T02240093  RH  043%=      5-min Rain = 0
KOD1 092057Z 21009KT 22/09 A301 RMK A01 T02240092  RH  043%=      5-min Rain = 0
KOD1 092058Z 21007KT 22/09 A301 RMK A01 T02230089  RH  042%=      5-min Rain = 0
KOD1 092059Z 21006KT 22/09 A301 RMK A01 T02220089  RH  042%=      5-min Rain = 0
KOD1 092100Z 21007KT 22/09 A301 RMK A01 T02230091  RH  043%=      5-min Rain = 0
KOD1 092101Z 21008KT 22/09 A3009 RMK A01 T02220093  RH  044%=      5-min Rain = 0
KOD1 092102Z 20007KT 22/09 A3009 RMK A01 T02230091  RH  043%=      5-min Rain = 0
KOD1 092103Z 20005KT 22/09 A3009 RMK A01 T02240091  RH  043%=      5-min Rain = 0
KOD1 092104Z 21006KT 22/09 A3009 RMK A01 T02240091  RH  043%=      5-min Rain = 0
KOD1 092105Z 22007KT 23/09 A3009 RMK A01 T02250094  RH  043%=      5-min Rain = 0
KOD1 092106Z 20008KT 23/10 A3009 RMK A01 T02260095  RH  043%=      5-min Rain = 0
KOD1 092107Z 20006KT 23/09 A3009 RMK A01 T02260093  RH  043%=      5-min Rain = 0
KOD1 092108Z 20006KT 23/09 A3009 RMK A01 T02250093  RH  043%=      5-min Rain = 0
KOD1 092109Z 20006KT 23/10 A3009 RMK A01 T02250096  RH  044%=      5-min Rain = 0
KOD1 092110Z 18007KT 23/10 A3009 RMK A01 T02270098  RH  044%=      5-min Rain = 0
KOD1 092111Z 17006KT 23/10 A3009 RMK A01 T02270096  RH  043%=      5-min Rain = 0
KOD1 092112Z 18006KT 23/09 A3009 RMK A01 T02270089  RH  041%=      5-min Rain = 0
KOD1 092113Z 20005KT 23/09 A3009 RMK A01 T02260090  RH  042%=      5-min Rain = 0
KOD1 092114Z 20005KT 23/09 A3009 RMK A01 T02270093  RH  042%=      5-min Rain = 0
KOD1 092115Z 19005KT 23/10 A3009 RMK A01 T02280097  RH  043%=      5-min Rain = 0
KOD1 092116Z 20007KT 23/10 A3009 RMK A01 T02280095  RH  043%=      5-min Rain = 0
KOD1 092117Z 21008KT 23/10 A3009 RMK A01 T02270096  RH  043%=      5-min Rain = 0
KOD1 092118Z 21007KT 23/09 A3009 RMK A01 T02250094  RH  043%=      5-min Rain = 0
KOD1 092119Z 18007KT 23/10 A3009 RMK A01 T02260100  RH  045%=      5-min Rain = 0
KOD1 092120Z 19008KT 23/10 A3009 RMK A01 T02270100  RH  045%=      5-min Rain = 0
KOD1 092121Z 18007KT 23/10 A3009 RMK A01 T02270099  RH  044%=      5-min Rain = 0
KOD1 092122Z 17008KT 23/10 A3009 RMK A01 T02260098  RH  044%=      5-min Rain = 0
KOD1 092123Z 17006KT 23/10 A3009 RMK A01 T02260100  RH  045%=      5-min Rain = 0
KOD1 092124Z 17009KT 23/10 A3009 RMK A01 T02270102  RH  045%=      5-min Rain = 0
KOD1 092125Z 18010KT 23/10 A3009 RMK A01 T02270100  RH  044%=      5-min Rain = 0
KOD1 092126Z 18008KT 23/10 A3009 RMK A01 T02260098  RH  044%=      5-min Rain = 0
KOD1 092127Z 18008KT 23/10 A3009 RMK A01 T02260099  RH  044%=      5-min Rain = 0
KOD1 092128Z 19008KT 23/10 A3009 RMK A01 T02270099  RH  044%=      5-min Rain = 0
KOD1 092129Z 19007KT 23/10 A3008 RMK A01 T02270100  RH  045%=      5-min Rain = 0
KOD1 092130Z 18009KT 23/10 A3008 RMK A01 T02270100  RH  044%=      5-min Rain = 0
KOD1 092131Z 18009KT 23/10 A3008 RMK A01 T02270098  RH  044%=      5-min Rain = 0
KOD1 092132Z 19007KT 23/10 A3008 RMK A01 T02270099  RH  044%=      5-min Rain = 0
KOD1 092133Z 20008KT 23/10 A3008 RMK A01 T02270100  RH  045%=      5-min Rain = 0
KOD1 092134Z 19007KT 23/10 A3008 RMK A01 T02260098  RH  044%=      5-min Rain = 0
KOD1 092135Z 18007KT 23/10 A3008 RMK A01 T02260100  RH  045%=      5-min Rain = 0
KOD1 092136Z 19006KT 23/10 A3008 RMK A01 T02270099  RH  044%=      5-min Rain = 0
KOD1 092137Z 18009KT 23/10 A3008 RMK A01 T02270100  RH  044%=      5-min Rain = 0
KOD1 092138Z 17008KT 23/10 A3008 RMK A01 T02260098  RH  044%=      5-min Rain = 0
KOD1 092139Z 18009KT 23/10 A3008 RMK A01 T02260099  RH  044%=      5-min Rain = 0
KOD1 092140Z 18008KT 23/10 A3008 RMK A01 T02250098  RH  044%=      5-min Rain = 0
KOD1 092141Z 18008KT 23/10 A3008 RMK A01 T02260100  RH  045%=      5-min Rain = 0
KOD1 092142Z 18008KT 23/10 A3008 RMK A01 T02260101  RH  045%=      5-min Rain = 0
KOD1 092143Z 18007KT 23/10 A3008 RMK A01 T02270101  RH  045%=      5-min Rain = 0
KOD1 092144Z 18010KT 23/10 A3008 RMK A01 T02270100  RH  044%=      5-min Rain = 0
KOD1 092145Z 18008KT 23/10 A3008 RMK A01 T02270098  RH  044%=      5-min Rain = 0
KOD1 092146Z 17008KT 23/10 A3008 RMK A01 T02270102  RH  045%=      5-min Rain = 0
KOD1 092147Z 17009KT 23/10 A3008 RMK A01 T02270101  RH  045%=      5-min Rain = 0
KOD1 092148Z 19010KT 23/10 A3008 RMK A01 T02270101  RH  045%=      5-min Rain = 0
KOD1 092149Z 19009KT 23/10 A3008 RMK A01 T02260098  RH  044%=      5-min Rain = 0
KOD1 092150Z 18010KT 23/10 A3008 RMK A01 T02260100  RH  045%=      5-min Rain = 0
KOD1 092151Z 18009KT 23/10 A3008 RMK A01 T02260100  RH  045%=      5-min Rain = 0
KOD1 092152Z 17009KT 23/10 A3008 RMK A01 T02270100  RH  045%=      5-min Rain = 0
KOD1 092153Z 17011KT 23/10 A3007 RMK A01 T02270099  RH  044%=      5-min Rain = 0
KOD1 092154Z 16009KT 23/10 A3007 RMK A01 T02260098  RH  044%=      5-min Rain = 0
KOD1 092155Z 17008KT 23/10 A3007 RMK A01 T02260097  RH  044%=      5-min Rain = 0
KOD1 092156Z 17009KT 23/10 A3007 RMK A01 T02270100  RH  044%=      5-min Rain = 0
KOD1 092157Z 18011KT 23/10 A3007 RMK A01 T02270099  RH  044%=      5-min Rain = 0
KOD1 092158Z 19010KT 23/10 A3007 RMK A01 T02260099  RH  044%=      5-min Rain = 0
KOD1 092159Z 18009KT 23/10 A3007 RMK A01 T02270101  RH  045%=      5-min Rain = 0
KOD1 092200Z 17009KT 23/10 A3007 RMK A01 T02270102  RH  045%=      5-min Rain = 0
KOD1 092201Z 18008KT 23/10 A3007 RMK A01 T02270101  RH  045%=      5-min Rain = 0
KOD1 092202Z 19008KT 23/10 A3007 RMK A01 T02280101  RH  045%=      5-min Rain = 0
KOD1 092203Z 18010KT 23/10 A3007 RMK A01 T02280098  RH  044%=      5-min Rain = 0
KOD1 092204Z 17009KT 23/10 A3007 RMK A01 T02280099  RH  044%=      5-min Rain = 0
KOD1 092205Z 18009KT 23/10 A3007 RMK A01 T02280098  RH  044%=      5-min Rain = 0
KOD1 092206Z 18008KT 23/10 A3007 RMK A01 T02270099  RH  044%=      5-min Rain = 0
KOD1 092207Z 18009KT 23/10 A3007 RMK A01 T02270098  RH  044%=      5-min Rain = 0
KOD1 092208Z 19008KT 23/10 A3007 RMK A01 T02270097  RH  044%=      5-min Rain = 0
KOD1 092209Z 19008KT 23/10 A3007 RMK A01 T02270095  RH  043%=      5-min Rain = 0
KOD1 092210Z 17009KT 23/10 A3007 RMK A01 T02280099  RH  044%=      5-min Rain = 0
KOD1 092211Z 18010KT 23/10 A3007 RMK A01 T02280100  RH  044%=      5-min Rain = 0
KOD1 092212Z 18010KT 23/10 A3007 RMK A01 T02270098  RH  044%=      5-min Rain = 0
KOD1 092213Z 17010KT 23/10 A3007 RMK A01 T02270097  RH  044%=      5-min Rain = 0
KOD1 092214Z 17009KT 23/10 A3007 RMK A01 T02270097  RH  044%=      5-min Rain = 0
KOD1 092215Z 17008KT 23/10 A3007 RMK A01 T02270098  RH  044%=      5-min Rain = 0
KOD1 092216Z 17008KT 23/10 A3007 RMK A01 T02270098  RH  044%=      5-min Rain = 0
KOD1 092217Z 18008KT 23/10 A3007 RMK A01 T02270098  RH  044%=      5-min Rain = 0
KOD1 092218Z 16008KT 23/10 A3007 RMK A01 T02270097  RH  044%=      5-min Rain = 0
KOD1 092219Z 17007KT 23/10 A3007 RMK A01 T02270097  RH  043%=      5-min Rain = 0
KOD1 092220Z 16007KT 23/10 A3007 RMK A01 T02270099  RH  044%=      5-min Rain = 0
KOD1 092221Z 19008KT 23/10 A3007 RMK A01 T02270098  RH  044%=      5-min Rain = 0
KOD1 092222Z 18007KT 23/10 A3007 RMK A01 T02270095  RH  043%=      5-min Rain = 0
KOD1 092223Z 19008KT 23/10 A3007 RMK A01 T02270099  RH  044%=      5-min Rain = 0
KOD1 092224Z 17007KT 23/10 A3007 RMK A01 T02270101  RH  045%=      5-min Rain = 0
KOD1 092225Z 17006KT 23/10 A3007 RMK A01 T02270102  RH  045%=      5-min Rain = 0
KOD1 092226Z 17007KT 23/10 A3007 RMK A01 T02270100  RH  045%=      5-min Rain = 0
KOD1 092227Z 18006KT 23/10 A3007 RMK A01 T02270100  RH  045%=      5-min Rain = 0
KOD1 092228Z 17007KT 23/10 A3007 RMK A01 T02270101  RH  045%=      5-min Rain = 0
KOD1 092229Z 16008KT 23/10 A3007 RMK A01 T02260097  RH  044%=      5-min Rain = 0
KOD1 092230Z 17008KT 23/10 A3007 RMK A01 T02260096  RH  044%=      5-min Rain = 0
KOD1 092231Z 16007KT 23/10 A3007 RMK A01 T02260098  RH  044%=      5-min Rain = 0
KOD1 092232Z 17008KT 23/10 A3007 RMK A01 T02260098  RH  044%=      5-min Rain = 0
KOD1 092233Z 17008KT 23/10 A3007 RMK A01 T02260096  RH  044%=      5-min Rain = 0
KOD1 092234Z 17008KT 23/10 A3007 RMK A01 T02260095  RH  043%=      5-min Rain = 0
KOD1 092235Z 17008KT 23/10 A3007 RMK A01 T02250095  RH  043%=      5-min Rain = 0
KOD1 092236Z 17007KT 23/09 A3007 RMK A01 T02250094  RH  043%=      5-min Rain = 0
KOD1 092237Z 17007KT 23/10 A3007 RMK A01 T02250096  RH  044%=      5-min Rain = 0
KOD1 092238Z 18007KT 23/10 A3007 RMK A01 T02250096  RH  044%=      5-min Rain = 0
KOD1 092239Z 17008KT 23/09 A3007 RMK A01 T02250093  RH  043%=      5-min Rain = 0
KOD1 092240Z 17008KT 23/09 A3007 RMK A01 T02250094  RH  043%=      5-min Rain = 0
KOD1 092241Z 18008KT 22/10 A3007 RMK A01 T02240096  RH  044%=      5-min Rain = 0
KOD1 092242Z 17007KT 22/10 A3007 RMK A01 T02240096  RH  044%=      5-min Rain = 0
KOD1 092243Z 17008KT 22/10 A3007 RMK A01 T02240095  RH  044%=      5-min Rain = 0
KOD1 092244Z 17009KT 22/09 A3007 RMK A01 T02230092  RH  043%=      5-min Rain = 0
KOD1 092245Z 17008KT 22/09 A3007 RMK A01 T02240092  RH  043%=      5-min Rain = 0
KOD1 092246Z 17007KT 22/09 A3007 RMK A01 T02230094  RH  044%=      5-min Rain = 0
KOD1 092247Z 17007KT 22/09 A3007 RMK A01 T02230094  RH  044%=      5-min Rain = 0
KOD1 092248Z 17007KT 22/10 A3007 RMK A01 T02230097  RH  045%=      5-min Rain = 0
KOD1 092249Z 17006KT 22/10 A3007 RMK A01 T02210098  RH  045%=      5-min Rain = 0
KOD1 092250Z 17006KT 22/10 A3007 RMK A01 T02210099  RH  046%=      5-min Rain = 0
KOD1 092251Z 17007KT 22/10 A3007 RMK A01 T02200100  RH  047%=      5-min Rain = 0
KOD1 092252Z 17007KT 22/10 A3006 RMK A01 T02190100  RH  047%=      5-min Rain = 0
KOD1 092253Z 17007KT 22/10 A3006 RMK A01 T02190098  RH  046%=      5-min Rain = 0
KOD1 092254Z 17007KT 22/10 A3006 RMK A01 T02190100  RH  047%=      5-min Rain = 0
KOD1 092255Z 16007KT 22/10 A3006 RMK A01 T02190100  RH  047%=      5-min Rain = 0
KOD1 092256Z 16007KT 22/10 A3006 RMK A01 T02180100  RH  047%=      5-min Rain = 0
KOD1 092257Z 16008KT 22/10 A3006 RMK A01 T02170101  RH  048%=      5-min Rain = 0
KOD1 092258Z 16008KT 22/10 A3006 RMK A01 T02160100  RH  047%=      5-min Rain = 0
KOD1 092259Z 16007KT 22/10 A3006 RMK A01 T02160100  RH  048%=      5-min Rain = 0
KOD1 092300Z 16008KT 22/10 A3006 RMK A01 T02150102  RH  049%=      5-min Rain = 0
KOD1 092301Z 15008KT 21/10 A3006 RMK A01 T02140102  RH  049%=      5-min Rain = 0
KOD1 092302Z 15007KT 21/10 A3006 RMK A01 T02140104  RH  049%=      5-min Rain = 0
KOD1 092303Z 15007KT 21/10 A3006 RMK A01 T02130104  RH  050%=      5-min Rain = 0
KOD1 092304Z 15007KT 21/10 A3006 RMK A01 T02120103  RH  050%=      5-min Rain = 0
KOD1 092305Z 15007KT 21/10 A3006 RMK A01 T02120104  RH  050%=      5-min Rain = 0
KOD1 092306Z 15007KT 21/10 A3006 RMK A01 T02120102  RH  050%=      5-min Rain = 0
KOD1 092307Z 15008KT 21/10 A3006 RMK A01 T02120102  RH  049%=      5-min Rain = 0
KOD1 092308Z 15008KT 21/10 A3006 RMK A01 T02120102  RH  050%=      5-min Rain = 0
KOD1 092309Z 15008KT 21/10 A3006 RMK A01 T02120102  RH  049%=      5-min Rain = 0
KOD1 092310Z 15007KT 21/10 A3006 RMK A01 T02120102  RH  050%=      5-min Rain = 0
KOD1 092311Z 15008KT 21/10 A3006 RMK A01 T02100103  RH  050%=      5-min Rain = 0
KOD1 092312Z 15008KT 21/10 A3006 RMK A01 T02090104  RH  051%=      5-min Rain = 0
KOD1 092313Z 15007KT 21/10 A3006 RMK A01 T02080104  RH  051%=      5-min Rain = 0
KOD1 092314Z 15007KT 21/11 A3006 RMK A01 T02070105  RH  052%=      5-min Rain = 0
KOD1 092315Z 16007KT 21/11 A3006 RMK A01 T02060105  RH  053%=      5-min Rain = 0
KOD1 092316Z 16007KT 21/11 A3006 RMK A01 T02050105  RH  053%=      5-min Rain = 0
KOD1 092317Z 16007KT 20/11 A3006 RMK A01 T02040106  RH  053%=      5-min Rain = 0
KOD1 092318Z 16007KT 20/11 A3006 RMK A01 T02020106  RH  054%=      5-min Rain = 0
KOD1 092319Z 16007KT 20/11 A3006 RMK A01 T02010106  RH  054%=      5-min Rain = 0
KOD1 092320Z 16007KT 20/11 A3006 RMK A01 T02000106  RH  055%=      5-min Rain = 0
KOD1 092321Z 15007KT 20/11 A3006 RMK A01 T01990107  RH  055%=      5-min Rain = 0
KOD1 092322Z 16007KT 20/11 A3006 RMK A01 T01970106  RH  056%=      5-min Rain = 0
KOD1 092323Z 15008KT 20/11 A3006 RMK A01 T01970106  RH  056%=      5-min Rain = 0
KOD1 092324Z 15007KT 20/11 A3006 RMK A01 T01960106  RH  056%=      5-min Rain = 0
KOD1 092325Z 15008KT 20/11 A3006 RMK A01 T01950106  RH  057%=      5-min Rain = 0
KOD1 092326Z 16008KT 19/11 A3006 RMK A01 T01930106  RH  057%=      5-min Rain = 0
KOD1 092327Z 16008KT 19/11 A3006 RMK A01 T01930106  RH  057%=      5-min Rain = 0
KOD1 092328Z 16009KT 19/11 A3006 RMK A01 T01920105  RH  057%=      5-min Rain = 0
KOD1 092329Z 16008KT 19/11 A3006 RMK A01 T01910106  RH  058%=      5-min Rain = 0
KOD1 092330Z 16008KT 19/11 A3006 RMK A01 T01890106  RH  058%=      5-min Rain = 0
KOD1 092331Z 16009KT 19/11 A3006 RMK A01 T01880106  RH  059%=      5-min Rain = 0
KOD1 092332Z 16008KT 19/11 A3006 RMK A01 T01870106  RH  059%=      5-min Rain = 0
KOD1 092333Z 16009KT 19/11 A3006 RMK A01 T01870105  RH  059%=      5-min Rain = 0
KOD1 092334Z 16009KT 19/11 A3006 RMK A01 T01860106  RH  060%=      5-min Rain = 0
KOD1 092335Z 16008KT 18/11 A3006 RMK A01 T01840106  RH  060%=      5-min Rain = 0
KOD1 092336Z 16008KT 18/11 A3006 RMK A01 T01830105  RH  060%=      5-min Rain = 0
KOD1 092337Z 16008KT 18/11 A3006 RMK A01 T01830105  RH  061%=      5-min Rain = 0
KOD1 092338Z 16008KT 18/11 A3006 RMK A01 T01820106  RH  061%=      5-min Rain = 0
KOD1 092339Z 16009KT 18/11 A3006 RMK A01 T01810105  RH  061%=      5-min Rain = 0
KOD1 092340Z 16009KT 18/11 A3006 RMK A01 T01800105  RH  061%=      5-min Rain = 0
KOD1 092341Z 16009KT 18/11 A3006 RMK A01 T01800105  RH  061%=      5-min Rain = 0
KOD1 092342Z 16009KT 18/11 A3006 RMK A01 T01800105  RH  061%=      5-min Rain = 0
KOD1 092343Z 16009KT 18/11 A3006 RMK A01 T01800105  RH  061%=      5-min Rain = 0
KOD1 092344Z 16009KT 18/11 A3006 RMK A01 T01790105  RH  062%=      5-min Rain = 0
KOD1 092345Z 16009KT 18/10 A3006 RMK A01 T01790104  RH  062%=      5-min Rain = 0
KOD1 092346Z 16009KT 18/10 A3006 RMK A01 T01780104  RH  062%=      5-min Rain = 0
KOD1 092347Z 16009KT 18/10 A3006 RMK A01 T01780104  RH  062%=      5-min Rain = 0
KOD1 092348Z 16009KT 18/10 A3006 RMK A01 T01770103  RH  062%=      5-min Rain = 0
KOD1 092349Z 16009KT 18/10 A3006 RMK A01 T01770103  RH  062%=      5-min Rain = 0
KOD1 092350Z 16009KT 18/10 A3006 RMK A01 T01760103  RH  062%=      5-min Rain = 0
KOD1 092351Z 16009KT 18/10 A3006 RMK A01 T01760103  RH  062%=      5-min Rain = 0
KOD1 092352Z 16009KT 18/10 A3006 RMK A01 T01750103  RH  063%=      5-min Rain = 0
KOD1 092353Z 16009KT 17/10 A3006 RMK A01 T01740102  RH  063%=      5-min Rain = 0
KOD1 092354Z 16009KT 18/10 A3006 RMK A01 T01750103  RH  062%=      5-min Rain = 0
KOD1 092355Z 16009KT 17/10 A3006 RMK A01 T01740102  RH  062%=      5-min Rain = 0
KOD1 092356Z 16009KT 17/10 A3006 RMK A01 T01740102  RH  062%=      5-min Rain = 0
KOD1 092357Z 16009KT 17/10 A3006 RMK A01 T01740102  RH  063%=      5-min Rain = 0
KOD1 092358Z 16009KT 17/10 A3006 RMK A01 T01730102  RH  063%=      5-min Rain = 0
KOD1 092359Z 16008KT 17/10 A3006 RMK A01 T01720102  RH  063%=      5-min Rain = 0
KOD1 100000Z 17008KT 17/10 A3006 RMK A01 T01710102  RH  064%=      5-min Rain = 0
KOD1 100001Z 16008KT 17/10 A3006 RMK A01 T01700102  RH  064%=      5-min Rain = 0
KOD1 100002Z 17008KT 17/10 A3006 RMK A01 T01690102  RH  065%=      5-min Rain = 0
KOD1 100003Z 17008KT 17/10 A3006 RMK A01 T01680102  RH  065%=      5-min Rain = 0
KOD1 100004Z 17008KT 17/10 A3006 RMK A01 T01670102  RH  065%=      5-min Rain = 0
KOD1 100005Z 16008KT 17/10 A3006 RMK A01 T01680102  RH  065%=      5-min Rain = 0
KOD1 100006Z 16009KT 17/10 A3006 RMK A01 T01670102  RH  065%=      5-min Rain = 0
KOD1 100007Z 16008KT 17/10 A3006 RMK A01 T01670101  RH  065%=      5-min Rain = 0
KOD1 100008Z 16008KT 17/10 A3006 RMK A01 T01670101  RH  065%=      5-min Rain = 0
KOD1 100009Z 16008KT 17/10 A3006 RMK A01 T01670101  RH  065%=      5-min Rain = 0
KOD1 100010Z 16008KT 17/10 A3006 RMK A01 T01670101  RH  065%=      5-min Rain = 0
KOD1 100011Z 16008KT 17/10 A3006 RMK A01 T01670101  RH  065%=      5-min Rain = 0
KOD1 100012Z 16008KT 17/10 A3006 RMK A01 T01660100  RH  065%=      5-min Rain = 0
KOD1 100013Z 16008KT 17/10 A3006 RMK A01 T01660101  RH  065%=      5-min Rain = 0
KOD1 100014Z 16009KT 17/10 A3006 RMK A01 T01660100  RH  065%=      5-min Rain = 0
KOD1 100015Z 16009KT 17/10 A3006 RMK A01 T01670100  RH  065%=      5-min Rain = 0
KOD1 100016Z 16009KT 17/10 A3006 RMK A01 T01670099  RH  064%=      5-min Rain = 0
KOD1 100017Z 16009KT 17/10 A3006 RMK A01 T01680099  RH  064%=      5-min Rain = 0
KOD1 100018Z 16009KT 17/10 A3006 RMK A01 T01680099  RH  063%=      5-min Rain = 0
KOD1 100019Z 16009KT 17/10 A3006 RMK A01 T01680099  RH  064%=      5-min Rain = 0
KOD1 100020Z 16010KT 17/10 A3006 RMK A01 T01670099  RH  064%=      5-min Rain = 0
KOD1 100021Z 16010KT 17/10 A3006 RMK A01 T01670099  RH  065%=      5-min Rain = 0
KOD1 100022Z 16010KT 17/10 A3006 RMK A01 T01660100  RH  065%=      5-min Rain = 0
KOD1 100023Z 16010KT 17/10 A3006 RMK A01 T01650100  RH  065%=      5-min Rain = 0
KOD1 100024Z 16010KT 16/10 A3006 RMK A01 T01640100  RH  066%=      5-min Rain = 0
KOD1 100025Z 16009KT 16/10 A3006 RMK A01 T01630100  RH  066%=      5-min Rain = 0
KOD1 100026Z 16009KT 16/10 A3006 RMK A01 T01630100  RH  066%=      5-min Rain = 0
KOD1 100027Z 15009KT 16/10 A3006 RMK A01 T01620099  RH  066%=      5-min Rain = 0
KOD1 100028Z 15009KT 16/10 A3006 RMK A01 T01630099  RH  066%=      5-min Rain = 0
KOD1 100029Z 15010KT 16/10 A3006 RMK A01 T01630099  RH  066%=      5-min Rain = 0
KOD1 100030Z 15007KT 16/10 A3006 RMK A01 T01640099  RH  065%=      5-min Rain = 0
KOD1 100031Z 15007KT 16/10 A3006 RMK A01 T01640099  RH  066%=      5-min Rain = 0
KOD1 100032Z 15007KT 16/10 A3006 RMK A01 T01620100  RH  067%=      5-min Rain = 0
KOD1 100033Z 15008KT 16/10 A3006 RMK A01 T01600100  RH  068%=      5-min Rain = 0
KOD1 100034Z 15009KT 16/10 A3006 RMK A01 T01590100  RH  068%=      5-min Rain = 0
KOD1 100035Z 15008KT 16/10 A3006 RMK A01 T01590100  RH  068%=      5-min Rain = 0
KOD1 100036Z 16009KT 16/10 A3006 RMK A01 T01600100  RH  067%=      5-min Rain = 0
KOD1 100037Z 16008KT 16/10 A3006 RMK A01 T01610101  RH  068%=      5-min Rain = 0
KOD1 100038Z 16009KT 16/10 A3006 RMK A01 T01620102  RH  068%=      5-min Rain = 0
KOD1 100039Z 16009KT 16/10 A3006 RMK A01 T01620102  RH  068%=      5-min Rain = 0
KOD1 100040Z 16010KT 16/10 A3006 RMK A01 T01620103  RH  068%=      5-min Rain = 0
KOD1 100041Z 16009KT 16/10 A3006 RMK A01 T01610103  RH  068%=      5-min Rain = 0
KOD1 100042Z 16010KT 16/10 A3006 RMK A01 T01600104  RH  069%=      5-min Rain = 0
KOD1 100043Z 16010KT 16/11 A3006 RMK A01 T01600105  RH  070%=      5-min Rain = 0
KOD1 100044Z 16009KT 16/11 A3006 RMK A01 T01610105  RH  069%=      5-min Rain = 0
KOD1 100045Z 15009KT 16/11 A3006 RMK A01 T01620105  RH  069%=      5-min Rain = 0
KOD1 100046Z 15009KT 16/11 A3006 RMK A01 T01610105  RH  069%=      5-min Rain = 0
KOD1 100047Z 15009KT 16/11 A3006 RMK A01 T01600105  RH  070%=      5-min Rain = 0
KOD1 100048Z 16009KT 16/11 A3006 RMK A01 T01590106  RH  071%=      5-min Rain = 0
KOD1 100049Z 15010KT 16/11 A3006 RMK A01 T01590106  RH  071%=      5-min Rain = 0
KOD1 100050Z 16008KT 16/11 A3006 RMK A01 T01590106  RH  071%=      5-min Rain = 0
KOD1 100051Z 15009KT 16/11 A3006 RMK A01 T01590107  RH  071%=      5-min Rain = 0
KOD1 100052Z 16009KT 16/11 A3006 RMK A01 T01590107  RH  071%=      5-min Rain = 0
KOD1 100053Z 16009KT 16/11 A3006 RMK A01 T01590108  RH  071%=      5-min Rain = 0
KOD1 100054Z 15009KT 16/11 A3006 RMK A01 T01590107  RH  071%=      5-min Rain = 0
KOD1 100055Z 16011KT 16/11 A3007 RMK A01 T01590108  RH  072%=      5-min Rain = 0
KOD1 100056Z 16009KT 16/11 A3007 RMK A01 T01600109  RH  071%=      5-min Rain = 0
KOD1 100057Z 16010KT 16/11 A3007 RMK A01 T01600108  RH  071%=      5-min Rain = 0
KOD1 100058Z 16011KT 16/11 A3007 RMK A01 T01590108  RH  072%=      5-min Rain = 0
KOD1 100059Z 16011KT 16/11 A3007 RMK A01 T01600109  RH  072%=      5-min Rain = 0
KOD1 100100Z 16011KT 16/11 A3007 RMK A01 T01610109  RH  071%=      5-min Rain = 0
KOD1 100101Z 16011KT 16/11 A3007 RMK A01 T01620109  RH  071%=      5-min Rain = 0
KOD1 100102Z 16010KT 16/11 A3007 RMK A01 T01610109  RH  071%=      5-min Rain = 0
KOD1 100103Z 16011KT 16/11 A3007 RMK A01 T01610110  RH  072%=      5-min Rain = 0
KOD1 100104Z 16010KT 16/11 A3007 RMK A01 T01610110  RH  072%=      5-min Rain = 0
KOD1 100105Z 16010KT 16/11 A3007 RMK A01 T01600109  RH  072%=      5-min Rain = 0
KOD1 100106Z 16010KT 16/11 A3007 RMK A01 T01590110  RH  072%=      5-min Rain = 0
KOD1 100107Z 16010KT 16/11 A3007 RMK A01 T01580110  RH  073%=      5-min Rain = 0
KOD1 100108Z 16010KT 16/11 A3007 RMK A01 T01580110  RH  073%=      5-min Rain = 0
KOD1 100109Z 16010KT 16/11 A3007 RMK A01 T01570110  RH  073%=      5-min Rain = 0
KOD1 100110Z 16009KT 16/11 A3007 RMK A01 T01570110  RH  074%=      5-min Rain = 0
KOD1 100111Z 17009KT 16/11 A3007 RMK A01 T01560110  RH  074%=      5-min Rain = 0
KOD1 100112Z 17010KT 16/11 A3007 RMK A01 T01550110  RH  074%=      5-min Rain = 0
KOD1 100113Z 16010KT 16/11 A3007 RMK A01 T01560111  RH  074%=      5-min Rain = 0
KOD1 100114Z 17010KT 16/11 A3007 RMK A01 T01560111  RH  074%=      5-min Rain = 0
KOD1 100115Z 17010KT 16/11 A3007 RMK A01 T01570111  RH  074%=      5-min Rain = 0
KOD1 100116Z 17010KT 16/11 A3007 RMK A01 T01560111  RH  074%=      5-min Rain = 0
KOD1 100117Z 17011KT 16/11 A3007 RMK A01 T01570112  RH  074%=      5-min Rain = 0
KOD1 100118Z 17011KT 16/11 A3007 RMK A01 T01580112  RH  074%=      5-min Rain = 0
KOD1 100119Z 17011KT 16/11 A3007 RMK A01 T01590112  RH  073%=      5-min Rain = 0
KOD1 100120Z 17011KT 16/11 A3007 RMK A01 T01600112  RH  073%=      5-min Rain = 0
KOD1 100121Z 17010KT 16/11 A3007 RMK A01 T01600112  RH  073%=      5-min Rain = 0
KOD1 100122Z 17011KT 16/11 A3007 RMK A01 T01600112  RH  073%=      5-min Rain = 0
KOD1 100123Z 17010KT 16/11 A3007 RMK A01 T01600112  RH  073%=      5-min Rain = 0
KOD1 100124Z 17011KT 16/11 A3007 RMK A01 T01600112  RH  073%=      5-min Rain = 0
KOD1 100125Z 17012KT 16/11 A3007 RMK A01 T01600112  RH  073%=      5-min Rain = 0
KOD1 100126Z 17012KT 16/11 A3007 RMK A01 T01610113  RH  073%=      5-min Rain = 0
KOD1 100127Z 17011KT 16/11 A3007 RMK A01 T01620113  RH  073%=      5-min Rain = 0
KOD1 100128Z 17011KT 16/11 A3007 RMK A01 T01620113  RH  073%=      5-min Rain = 0
KOD1 100129Z 17012KT 16/11 A3007 RMK A01 T01620113  RH  073%=      5-min Rain = 0
KOD1 100130Z 17011KT 16/11 A3007 RMK A01 T01630113  RH  072%=      5-min Rain = 0
KOD1 100131Z 17011KT 16/11 A3007 RMK A01 T01620113  RH  073%=      5-min Rain = 0
KOD1 100132Z 18012KT 16/11 A3007 RMK A01 T01620114  RH  073%=      5-min Rain = 0
KOD1 100133Z 18013KT 16/11 A3007 RMK A01 T01620114  RH  073%=      5-min Rain = 0
KOD1 100134Z 17012KT 16/11 A3007 RMK A01 T01630114  RH  073%=      5-min Rain = 0
KOD1 100135Z 17012KT 16/11 A3007 RMK A01 T01630114  RH  073%=      5-min Rain = 0
KOD1 100136Z 17012KT 16/11 A3007 RMK A01 T01630114  RH  073%=      5-min Rain = 0
KOD1 100137Z 17013KT 16/11 A3007 RMK A01 T01620114  RH  073%=      5-min Rain = 0
KOD1 100138Z 17012KT 16/11 A3007 RMK A01 T01630114  RH  073%=      5-min Rain = 0
KOD1 100139Z 17012KT 16/11 A3007 RMK A01 T01620114  RH  073%=      5-min Rain = 0
KOD1 100140Z 17013KT 16/11 A3007 RMK A01 T01620114  RH  073%=      5-min Rain = 0
KOD1 100141Z 17013KT 16/11 A3007 RMK A01 T01620114  RH  073%=      5-min Rain = 0
KOD1 100142Z 17013KT 16/11 A3007 RMK A01 T01630114  RH  073%=      5-min Rain = 0
KOD1 100143Z 17012KT 16/11 A3007 RMK A01 T01620113  RH  073%=      5-min Rain = 0
KOD1 100144Z 18012KT 16/11 A3007 RMK A01 T01610113  RH  073%=      5-min Rain = 0
KOD1 100145Z 18013KT 16/11 A3007 RMK A01 T01610114  RH  073%=      5-min Rain = 0
KOD1 100146Z 18012KT 16/11 A3007 RMK A01 T01630114  RH  073%=      5-min Rain = 0
KOD1 100147Z 18012KT 16/11 A3007 RMK A01 T01620113  RH  073%=      5-min Rain = 0
KOD1 100148Z 18012KT 16/11 A3007 RMK A01 T01610113  RH  073%=      5-min Rain = 0
KOD1 100149Z 18013KT 16/11 A3007 RMK A01 T01610113  RH  073%=      5-min Rain = 0
KOD1 100150Z 18011KT 16/11 A3007 RMK A01 T01610113  RH  073%=      5-min Rain = 0
KOD1 100151Z 18012KT 16/11 A3007 RMK A01 T01610113  RH  073%=      5-min Rain = 0
KOD1 100152Z 18012KT 16/11 A3007 RMK A01 T01610113  RH  073%=      5-min Rain = 0
KOD1 100153Z 18012KT 16/11 A3007 RMK A01 T01620114  RH  073%=      5-min Rain = 0
KOD1 100154Z 18011KT 16/11 A3007 RMK A01 T01610113  RH  073%=      5-min Rain = 0
KOD1 100155Z 18012KT 16/11 A3007 RMK A01 T01610113  RH  073%=      5-min Rain = 0
KOD1 100156Z 18012KT 16/11 A3007 RMK A01 T01600113  RH  074%=      5-min Rain = 0
KOD1 100157Z 18012KT 16/11 A3007 RMK A01 T01610113  RH  074%=      5-min Rain = 0
KOD1 100158Z 17011KT 16/11 A3007 RMK A01 T01610113  RH  073%=      5-min Rain = 0
KOD1 100159Z 18011KT 16/11 A3007 RMK A01 T01600113  RH  074%=      5-min Rain = 0
KOD1 100200Z 17011KT 16/11 A3007 RMK A01 T01600113  RH  074%=      5-min Rain = 0
KOD1 100201Z 17011KT 16/11 A3007 RMK A01 T01590113  RH  074%=      5-min Rain = 0
KOD1 100202Z 17011KT 16/11 A3007 RMK A01 T01580113  RH  074%=      5-min Rain = 0
KOD1 100203Z 17010KT 16/11 A3007 RMK A01 T01580113  RH  075%=      5-min Rain = 0
KOD1 100204Z 18011KT 16/11 A3007 RMK A01 T01580113  RH  075%=      5-min Rain = 0
KOD1 100205Z 17011KT 16/11 A3007 RMK A01 T01580113  RH  075%=      5-min Rain = 0
KOD1 100206Z 18011KT 16/11 A3007 RMK A01 T01580113  RH  074%=      5-min Rain = 0
KOD1 100207Z 17011KT 16/11 A3007 RMK A01 T01580113  RH  075%=      5-min Rain = 0
KOD1 100208Z 17011KT 16/11 A3007 RMK A01 T01570113  RH  075%=      5-min Rain = 0
KOD1 100209Z 18011KT 16/11 A3007 RMK A01 T01570113  RH  075%=      5-min Rain = 0
KOD1 100210Z 18011KT 16/11 A3007 RMK A01 T01560113  RH  075%=      5-min Rain = 0
KOD1 100211Z 18012KT 16/11 A3007 RMK A01 T01570114  RH  075%=      5-min Rain = 0
KOD1 100212Z 18012KT 16/11 A3007 RMK A01 T01570113  RH  075%=      5-min Rain = 0
KOD1 100213Z 17012KT 16/11 A3007 RMK A01 T01560113  RH  075%=      5-min Rain = 0
KOD1 100214Z 18011KT 16/11 A3007 RMK A01 T01560113  RH  075%=      5-min Rain = 0
KOD1 100215Z 17011KT 16/11 A3007 RMK A01 T01560113  RH  076%=      5-min Rain = 0
KOD1 100216Z 17012KT 16/11 A3007 RMK A01 T01560113  RH  076%=      5-min Rain = 0
KOD1 100217Z 18012KT 16/11 A3006 RMK A01 T01560113  RH  076%=      5-min Rain = 0
KOD1 100218Z 17011KT 16/11 A3006 RMK A01 T01560114  RH  076%=      5-min Rain = 0
KOD1 100219Z 17012KT 16/11 A3006 RMK A01 T01560113  RH  075%=      5-min Rain = 0
KOD1 100220Z 17012KT 16/11 A3006 RMK A01 T01550113  RH  076%=      5-min Rain = 0
KOD1 100221Z 18012KT 16/11 A3006 RMK A01 T01550113  RH  076%=      5-min Rain = 0
KOD1 100222Z 18012KT 15/11 A3006 RMK A01 T01540113  RH  076%=      5-min Rain = 0
KOD1 100223Z 17012KT 15/11 A3006 RMK A01 T01540113  RH  077%=      5-min Rain = 0
KOD1 100224Z 18012KT 15/11 A3006 RMK A01 T01530113  RH  077%=      5-min Rain = 0
KOD1 100225Z 17012KT 15/11 A3006 RMK A01 T01530113  RH  077%=      5-min Rain = 0
KOD1 100226Z 18012KT 15/11 A3006 RMK A01 T01530113  RH  077%=      5-min Rain = 0
KOD1 100227Z 18011KT 15/11 A3006 RMK A01 T01530113  RH  077%=      5-min Rain = 0
KOD1 100228Z 18011KT 15/11 A3007 RMK A01 T01520113  RH  077%=      5-min Rain = 0
KOD1 100229Z 18011KT 15/11 A3006 RMK A01 T01520113  RH  077%=      5-min Rain = 0
KOD1 100230Z 18012KT 15/11 A3006 RMK A01 T01520113  RH  077%=      5-min Rain = 0
KOD1 100231Z 18011KT 15/11 A3006 RMK A01 T01520113  RH  078%=      5-min Rain = 0
KOD1 100232Z 17012KT 15/11 A3006 RMK A01 T01510113  RH  078%=      5-min Rain = 0
KOD1 100233Z 18012KT 15/11 A3006 RMK A01 T01510113  RH  078%=      5-min Rain = 0
KOD1 100234Z 18014KT 15/11 A3006 RMK A01 T01510114  RH  078%=      5-min Rain = 0
KOD1 100235Z 17013KT 15/11 A3006 RMK A01 T01530113  RH  077%=      5-min Rain = 0
KOD1 100236Z 18011KT 15/11 A3006 RMK A01 T01520112  RH  077%=      5-min Rain = 0
KOD1 100237Z 18013KT 15/11 A3006 RMK A01 T01510113  RH  078%=      5-min Rain = 0
KOD1 100238Z 18012KT 15/11 A3006 RMK A01 T01520113  RH  078%=      5-min Rain = 0
KOD1 100239Z 18012KT 15/11 A3006 RMK A01 T01510112  RH  077%=      5-min Rain = 0
KOD1 100240Z 18012KT 15/11 A3006 RMK A01 T01510113  RH  078%=      5-min Rain = 0
KOD1 100241Z 18012KT 15/11 A3006 RMK A01 T01520112  RH  077%=      5-min Rain = 0
KOD1 100242Z 18012KT 15/11 A3006 RMK A01 T01500112  RH  078%=      5-min Rain = 0
KOD1 100243Z 18012KT 15/11 A3006 RMK A01 T01500113  RH  078%=      5-min Rain = 0
KOD1 100244Z 18012KT 15/11 A3006 RMK A01 T01510113  RH  078%=      5-min Rain = 0
KOD1 100245Z 18012KT 15/11 A3006 RMK A01 T01510112  RH  078%=      5-min Rain = 0
KOD1 100246Z 18011KT 15/11 A3006 RMK A01 T01500112  RH  078%=      5-min Rain = 0
KOD1 100247Z 18012KT 15/11 A3006 RMK A01 T01490112  RH  078%=      5-min Rain = 0
KOD1 100248Z 18011KT 15/11 A3006 RMK A01 T01480112  RH  079%=      5-min Rain = 0
KOD1 100249Z 18012KT 15/11 A3006 RMK A01 T01480112  RH  079%=      5-min Rain = 0
KOD1 100250Z 18012KT 15/11 A3006 RMK A01 T01480112  RH  079%=      5-min Rain = 0
KOD1 100251Z 18011KT 15/11 A3006 RMK A01 T01490112  RH  079%=      5-min Rain = 0
KOD1 100252Z 18011KT 15/11 A3006 RMK A01 T01480112  RH  079%=      5-min Rain = 0
KOD1 100253Z 18011KT 15/11 A3006 RMK A01 T01480112  RH  079%=      5-min Rain = 0
KOD1 100254Z 18011KT 15/11 A3006 RMK A01 T01480111  RH  079%=      5-min Rain = 0
KOD1 100255Z 18010KT 15/11 A3006 RMK A01 T01470111  RH  079%=      5-min Rain = 0
KOD1 100256Z 18011KT 15/11 A3006 RMK A01 T01470111  RH  079%=      5-min Rain = 0
KOD1 100257Z 18012KT 15/11 A3006 RMK A01 T01470112  RH  079%=      5-min Rain = 0
KOD1 100258Z 18012KT 15/11 A3006 RMK A01 T01480112  RH  079%=      5-min Rain = 0
KOD1 100259Z 18012KT 15/11 A3006 RMK A01 T01480111  RH  078%=      5-min Rain = 0
KOD1 100300Z 18010KT 15/11 A3006 RMK A01 T01480111  RH  078%=      5-min Rain = 0
KOD1 100301Z 18010KT 15/11 A3006 RMK A01 T01470111  RH  079%=      5-min Rain = 0
KOD1 100302Z 18011KT 15/11 A3006 RMK A01 T01460110  RH  079%=      5-min Rain = 0
KOD1 100303Z 18010KT 15/11 A3006 RMK A01 T01450110  RH  080%=      5-min Rain = 0
KOD1 100304Z 18010KT 15/11 A3006 RMK A01 T01450110  RH  080%=      5-min Rain = 0
KOD1 100305Z 18011KT 15/11 A3006 RMK A01 T01450110  RH  080%=      5-min Rain = 0
KOD1 100306Z 18011KT 15/11 A3006 RMK A01 T01450111  RH  080%=      5-min Rain = 0
KOD1 100307Z 18011KT 15/11 A3006 RMK A01 T01450110  RH  080%=      5-min Rain = 0
KOD1 100308Z 18012KT 15/11 A3006 RMK A01 T01450110  RH  080%=      5-min Rain = 0
KOD1 100309Z 18011KT 15/11 A3006 RMK A01 T01450110  RH  079%=      5-min Rain = 0
KOD1 100310Z 18010KT 15/11 A3006 RMK A01 T01450110  RH  079%=      5-min Rain = 0
KOD1 100311Z 18011KT 15/11 A3006 RMK A01 T01450110  RH  080%=      5-min Rain = 0
KOD1 100312Z 18010KT 14/11 A3006 RMK A01 T01440110  RH  080%=      5-min Rain = 0
KOD1 100313Z 18011KT 14/11 A3006 RMK A01 T01440110  RH  080%=      5-min Rain = 0
KOD1 100314Z 18011KT 14/11 A3006 RMK A01 T01440110  RH  080%=      5-min Rain = 0
KOD1 100315Z 18011KT 14/11 A3006 RMK A01 T01430109  RH  080%=      5-min Rain = 0
KOD1 100316Z 18010KT 14/11 A3006 RMK A01 T01430110  RH  080%=      5-min Rain = 0
KOD1 100317Z 18011KT 14/11 A3006 RMK A01 T01430110  RH  080%=      5-min Rain = 0
KOD1 100318Z 18011KT 14/11 A3006 RMK A01 T01420109  RH  080%=      5-min Rain = 0
KOD1 100319Z 18012KT 14/11 A3006 RMK A01 T01420110  RH  081%=      5-min Rain = 0
KOD1 100320Z 18012KT 14/11 A3006 RMK A01 T01420110  RH  081%=      5-min Rain = 0
KOD1 100321Z 18012KT 14/11 A3006 RMK A01 T01430110  RH  080%=      5-min Rain = 0
KOD1 100322Z 18011KT 14/11 A3006 RMK A01 T01440110  RH  080%=      5-min Rain = 0
KOD1 100323Z 18011KT 14/11 A3006 RMK A01 T01430109  RH  080%=      5-min Rain = 0
KOD1 100324Z 18011KT 14/11 A3006 RMK A01 T01430109  RH  080%=      5-min Rain = 0
KOD1 100325Z 18012KT 14/11 A3006 RMK A01 T01430109  RH  080%=      5-min Rain = 0
KOD1 100326Z 18011KT 14/11 A3006 RMK A01 T01440109  RH  080%=      5-min Rain = 0
KOD1 100327Z 18012KT 14/11 A3006 RMK A01 T01430109  RH  080%=      5-min Rain = 0
KOD1 100328Z 18011KT 14/11 A3006 RMK A01 T01430109  RH  080%=      5-min Rain = 0
KOD1 100329Z 18011KT 14/11 A3006 RMK A01 T01420109  RH  080%=      5-min Rain = 0
KOD1 100330Z 18012KT 14/11 A3006 RMK A01 T01420109  RH  080%=      5-min Rain = 0
KOD1 100331Z 18012KT 14/11 A3006 RMK A01 T01430109  RH  080%=      5-min Rain = 0
KOD1 100332Z 18011KT 14/11 A3006 RMK A01 T01430109  RH  080%=      5-min Rain = 0
KOD1 100333Z 18010KT 14/11 A3007 RMK A01 T01420109  RH  080%=      5-min Rain = 0
KOD1 100334Z 18011KT 14/11 A3007 RMK A01 T01410108  RH  080%=      5-min Rain = 0
KOD1 100335Z 18011KT 14/11 A3007 RMK A01 T01410109  RH  081%=      5-min Rain = 0
KOD1 100336Z 18011KT 14/11 A3007 RMK A01 T01410109  RH  081%=      5-min Rain = 0
KOD1 100337Z 18011KT 14/11 A3007 RMK A01 T01410108  RH  080%=      5-min Rain = 0
KOD1 100338Z 18010KT 14/11 A3007 RMK A01 T01420109  RH  080%=      5-min Rain = 0
KOD1 100339Z 18010KT 14/11 A3007 RMK A01 T01420108  RH  080%=      5-min Rain = 0
KOD1 100340Z 18011KT 14/11 A3007 RMK A01 T01410108  RH  081%=      5-min Rain = 0
KOD1 100341Z 18011KT 14/11 A3007 RMK A01 T01400108  RH  081%=      5-min Rain = 0
KOD1 100342Z 18010KT 14/11 A3007 RMK A01 T01400108  RH  081%=      5-min Rain = 0
KOD1 100343Z 18010KT 14/11 A3007 RMK A01 T01390107  RH  081%=      5-min Rain = 0
KOD1 100344Z 18010KT 14/11 A3007 RMK A01 T01390107  RH  081%=      5-min Rain = 0
KOD1 100345Z 18010KT 14/11 A3007 RMK A01 T01390108  RH  081%=      5-min Rain = 0
KOD1 100346Z 18010KT 14/11 A3007 RMK A01 T01400108  RH  081%=      5-min Rain = 0
KOD1 100347Z 18010KT 14/11 A3007 RMK A01 T01400108  RH  081%=      5-min Rain = 0
KOD1 100348Z 18010KT 14/11 A3007 RMK A01 T01400107  RH  081%=      5-min Rain = 0
KOD1 100349Z 18009KT 14/11 A3007 RMK A01 T01400107  RH  081%=      5-min Rain = 0
KOD1 100350Z 18010KT 14/11 A3007 RMK A01 T01390106  RH  081%=      5-min Rain = 0
KOD1 100351Z 18010KT 14/11 A3007 RMK A01 T01390107  RH  081%=      5-min Rain = 0
KOD1 100352Z 18009KT 14/11 A3007 RMK A01 T01390107  RH  081%=      5-min Rain = 0
KOD1 100353Z 18009KT 14/11 A3007 RMK A01 T01380106  RH  081%=      5-min Rain = 0
KOD1 100354Z 18010KT 14/11 A3007 RMK A01 T01380107  RH  082%=      5-min Rain = 0
KOD1 100355Z 18010KT 14/11 A3007 RMK A01 T01380107  RH  082%=      5-min Rain = 0
KOD1 100356Z 18010KT 14/11 A3007 RMK A01 T01390107  RH  081%=      5-min Rain = 0
KOD1 100357Z 19009KT 14/11 A3007 RMK A01 T01390107  RH  081%=      5-min Rain = 0
KOD1 100358Z 19009KT 14/11 A3007 RMK A01 T01390107  RH  081%=      5-min Rain = 0
KOD1 100359Z 18010KT 14/11 A3007 RMK A01 T01390107  RH  081%=      5-min Rain = 0
KOD1 100400Z 19009KT 14/11 A3007 RMK A01 T01390106  RH  081%=      5-min Rain = 0
KOD1 100401Z 18010KT 14/11 A3007 RMK A01 T01380106  RH  081%=      5-min Rain = 0
KOD1 100402Z 18010KT 14/11 A3007 RMK A01 T01390107  RH  081%=      5-min Rain = 0
KOD1 100403Z 18010KT 14/11 A3007 RMK A01 T01400107  RH  080%=      5-min Rain = 0
KOD1 100404Z 18010KT 14/11 A3007 RMK A01 T01390106  RH  080%=      5-min Rain = 0
KOD1 100405Z 19010KT 14/11 A3007 RMK A01 T01400107  RH  081%=      5-min Rain = 0
KOD1 100406Z 19009KT 14/11 A3007 RMK A01 T01400107  RH  080%=      5-min Rain = 0
KOD1 100407Z 18010KT 14/11 A3007 RMK A01 T01400106  RH  080%=      5-min Rain = 0
KOD1 100408Z 19010KT 14/11 A3007 RMK A01 T01390105  RH  080%=      5-min Rain = 0
KOD1 100409Z 19011KT 14/11 A3007 RMK A01 T01380106  RH  081%=      5-min Rain = 0
KOD1 100410Z 18010KT 14/11 A3007 RMK A01 T01390107  RH  081%=      5-min Rain = 0
KOD1 100411Z 19011KT 14/11 A3007 RMK A01 T01400106  RH  080%=      5-min Rain = 0
KOD1 100412Z 19011KT 14/11 A3007 RMK A01 T01410107  RH  080%=      5-min Rain = 0
KOD1 100413Z 19010KT 14/11 A3007 RMK A01 T01420107  RH  079%=      5-min Rain = 0
KOD1 100414Z 19010KT 14/11 A3007 RMK A01 T01420106  RH  079%=      5-min Rain = 0
KOD1 100415Z 19010KT 14/11 A3007 RMK A01 T01420106  RH  079%=      5-min Rain = 0
KOD1 100416Z 19009KT 14/11 A3007 RMK A01 T01420106  RH  079%=      5-min Rain = 0
KOD1 100417Z 19009KT 14/11 A3007 RMK A01 T01400105  RH  079%=      5-min Rain = 0
KOD1 100418Z 19010KT 14/11 A3007 RMK A01 T01400106  RH  080%=      5-min Rain = 0
KOD1 100419Z 18010KT 14/11 A3007 RMK A01 T01400106  RH  080%=      5-min Rain = 0
KOD1 100420Z 19009KT 14/11 A3007 RMK A01 T01400106  RH  080%=      5-min Rain = 0
KOD1 100421Z 19009KT 14/11 A3007 RMK A01 T01400105  RH  080%=      5-min Rain = 0
KOD1 100422Z 19009KT 14/11 A3007 RMK A01 T01390105  RH  080%=      5-min Rain = 0
KOD1 100423Z 19010KT 14/11 A3007 RMK A01 T01390105  RH  080%=      5-min Rain = 0
KOD1 100424Z 18010KT 14/11 A3007 RMK A01 T01380105  RH  080%=      5-min Rain = 0
KOD1 100425Z 18010KT 14/11 A3007 RMK A01 T01380105  RH  081%=      5-min Rain = 0
KOD1 100426Z 18009KT 14/11 A3007 RMK A01 T01370105  RH  081%=      5-min Rain = 0
KOD1 100427Z 18011KT 14/11 A3007 RMK A01 T01370105  RH  081%=      5-min Rain = 0
KOD1 100428Z 18010KT 14/11 A3007 RMK A01 T01370105  RH  081%=      5-min Rain = 0
KOD1 100429Z 18010KT 14/10 A3007 RMK A01 T01360104  RH  081%=      5-min Rain = 0
KOD1 100430Z 18010KT 14/11 A3007 RMK A01 T01350105  RH  082%=      5-min Rain = 0
KOD1 100431Z 18010KT 14/11 A3007 RMK A01 T01350105  RH  082%=      5-min Rain = 0
KOD1 100432Z 18010KT 14/11 A3007 RMK A01 T01350105  RH  082%=      5-min Rain = 0
KOD1 100433Z 18011KT 14/11 A3007 RMK A01 T01350105  RH  082%=      5-min Rain = 0
KOD1 100434Z 18010KT 14/11 A3007 RMK A01 T01360105  RH  082%=      5-min Rain = 0
KOD1 100435Z 19010KT 14/11 A3007 RMK A01 T01360105  RH  081%=      5-min Rain = 0
KOD1 100436Z 18010KT 14/10 A3007 RMK A01 T01360104  RH  081%=      5-min Rain = 0
KOD1 100437Z 18010KT 14/11 A3007 RMK A01 T01350105  RH  082%=      5-min Rain = 0
KOD1 100438Z 18010KT 13/10 A3007 RMK A01 T01340104  RH  082%=      5-min Rain = 0
KOD1 100439Z 18011KT 13/11 A3007 RMK A01 T01340105  RH  082%=      5-min Rain = 0
KOD1 100440Z 18010KT 13/11 A3007 RMK A01 T01340105  RH  082%=      5-min Rain = 0
KOD1 100441Z 18011KT 14/11 A3007 RMK A01 T01350105  RH  082%=      5-min Rain = 0
KOD1 100442Z 18010KT 14/11 A3007 RMK A01 T01350105  RH  082%=      5-min Rain = 0
KOD1 100443Z 18010KT 14/10 A3007 RMK A01 T01350104  RH  082%=      5-min Rain = 0
KOD1 100444Z 18010KT 13/10 A3007 RMK A01 T01340104  RH  082%=      5-min Rain = 0
KOD1 100445Z 18009KT 13/10 A3007 RMK A01 T01330103  RH  082%=      5-min Rain = 0
KOD1 100446Z 18010KT 13/10 A3007 RMK A01 T01320104  RH  083%=      5-min Rain = 0
KOD1 100447Z 18010KT 13/10 A3007 RMK A01 T01330104  RH  083%=      5-min Rain = 0
KOD1 100448Z 18010KT 13/10 A3007 RMK A01 T01330104  RH  083%=      5-min Rain = 0
KOD1 100449Z 18009KT 13/10 A3007 RMK A01 T01330104  RH  083%=      5-min Rain = 0
KOD1 100450Z 18010KT 13/10 A3007 RMK A01 T01320103  RH  083%=      5-min Rain = 0
KOD1 100451Z 18010KT 13/10 A3007 RMK A01 T01320104  RH  083%=      5-min Rain = 0
KOD1 100452Z 18010KT 13/10 A3007 RMK A01 T01320103  RH  083%=      5-min Rain = 0
KOD1 100453Z 18010KT 13/10 A3006 RMK A01 T01320104  RH  083%=      5-min Rain = 0
KOD1 100454Z 18010KT 13/10 A3006 RMK A01 T01320104  RH  083%=      5-min Rain = 0
KOD1 100455Z 18010KT 13/10 A3006 RMK A01 T01310103  RH  083%=      5-min Rain = 0
KOD1 100456Z 18010KT 13/10 A3006 RMK A01 T01310104  RH  083%=      5-min Rain = 0
KOD1 100457Z 18010KT 13/10 A3006 RMK A01 T01310104  RH  083%=      5-min Rain = 0
KOD1 100458Z 18010KT 13/10 A3006 RMK A01 T01310103  RH  083%=      5-min Rain = 0
KOD1 100459Z 18010KT 13/10 A3006 RMK A01 T01310104  RH  084%=      5-min Rain = 0
KOD1 100500Z 18011KT 13/10 A3006 RMK A01 T01310103  RH  083%=      5-min Rain = 0
KOD1 100501Z 18010KT 13/10 A3006 RMK A01 T01310103  RH  083%=      5-min Rain = 0
KOD1 100502Z 18010KT 13/10 A3006 RMK A01 T01310103  RH  083%=      5-min Rain = 0
KOD1 100503Z 18010KT 13/10 A3006 RMK A01 T01300102  RH  083%=      5-min Rain = 0
KOD1 100504Z 18011KT 13/10 A3006 RMK A01 T01290102  RH  084%=      5-min Rain = 0
KOD1 100505Z 18010KT 13/10 A3006 RMK A01 T01290103  RH  084%=      5-min Rain = 0
KOD1 100506Z 18010KT 13/10 A3006 RMK A01 T01290102  RH  084%=      5-min Rain = 0
KOD1 100507Z 18010KT 13/10 A3006 RMK A01 T01290103  RH  084%=      5-min Rain = 0
KOD1 100508Z 18011KT 13/10 A3006 RMK A01 T01290103  RH  084%=      5-min Rain = 0
KOD1 100509Z 18010KT 13/10 A3006 RMK A01 T01300104  RH  084%=      5-min Rain = 0
KOD1 100510Z 18011KT 13/10 A3006 RMK A01 T01310103  RH  083%=      5-min Rain = 0
KOD1 100511Z 18010KT 13/10 A3006 RMK A01 T01300102  RH  083%=      5-min Rain = 0
KOD1 100512Z 18010KT 13/10 A3006 RMK A01 T01300102  RH  084%=      5-min Rain = 0
KOD1 100513Z 18011KT 13/10 A3006 RMK A01 T01290102  RH  084%=      5-min Rain = 0
KOD1 100514Z 18010KT 13/10 A3006 RMK A01 T01290102  RH  084%=      5-min Rain = 0
KOD1 100515Z 18010KT 13/10 A3006 RMK A01 T01280101  RH  084%=      5-min Rain = 0
KOD1 100516Z 18010KT 13/10 A3006 RMK A01 T01270102  RH  084%=      5-min Rain = 0
KOD1 100517Z 18010KT 13/10 A3006 RMK A01 T01270102  RH  085%=      5-min Rain = 0
KOD1 100518Z 18010KT 13/10 A3006 RMK A01 T01270102  RH  084%=      5-min Rain = 0
KOD1 100519Z 18010KT 13/10 A3006 RMK A01 T01270101  RH  084%=      5-min Rain = 0
KOD1 100520Z 18010KT 13/10 A3006 RMK A01 T01270101  RH  085%=      5-min Rain = 0
KOD1 100521Z 18011KT 13/10 A3006 RMK A01 T01270102  RH  085%=      5-min Rain = 0
KOD1 100522Z 18011KT 13/10 A3006 RMK A01 T01260101  RH  085%=      5-min Rain = 0
KOD1 100523Z 18011KT 13/10 A3006 RMK A01 T01260101  RH  085%=      5-min Rain = 0
KOD1 100524Z 18011KT 13/10 A3006 RMK A01 T01260101  RH  085%=      5-min Rain = 0
KOD1 100525Z 18011KT 13/10 A3006 RMK A01 T01260101  RH  085%=      5-min Rain = 0
KOD1 100526Z 18011KT 13/10 A3006 RMK A01 T01260101  RH  085%=      5-min Rain = 0
KOD1 100527Z 18011KT 13/10 A3006 RMK A01 T01270102  RH  085%=      5-min Rain = 0
KOD1 100528Z 18011KT 13/10 A3006 RMK A01 T01270102  RH  085%=      5-min Rain = 0
KOD1 100529Z 18011KT 13/10 A3006 RMK A01 T01270101  RH  084%=      5-min Rain = 0
KOD1 100530Z 18010KT 13/10 A3006 RMK A01 T01270101  RH  084%=      5-min Rain = 0
KOD1 100531Z 18010KT 13/10 A3006 RMK A01 T01260101  RH  084%=      5-min Rain = 0
KOD1 100532Z 18011KT 13/10 A3006 RMK A01 T01260101  RH  085%=      5-min Rain = 0
KOD1 100533Z 18011KT 13/10 A3006 RMK A01 T01260101  RH  085%=      5-min Rain = 0
KOD1 100534Z 18011KT 13/10 A3006 RMK A01 T01260101  RH  085%=      5-min Rain = 0
KOD1 100535Z 18011KT 13/10 A3006 RMK A01 T01260101  RH  085%=      5-min Rain = 0
KOD1 100536Z 18011KT 13/10 A3006 RMK A01 T01260101  RH  085%=      5-min Rain = 0
KOD1 100537Z 18011KT 13/10 A3006 RMK A01 T01260101  RH  085%=      5-min Rain = 0
KOD1 100538Z 18011KT 13/10 A3006 RMK A01 T01250101  RH  085%=      5-min Rain = 0
KOD1 100539Z 18012KT 13/10 A3006 RMK A01 T01250100  RH  085%=      5-min Rain = 0
KOD1 100540Z 18011KT 13/10 A3006 RMK A01 T01260101  RH  085%=      5-min Rain = 0
KOD1 100541Z 18011KT 13/10 A3006 RMK A01 T01260101  RH  085%=      5-min Rain = 0
KOD1 100542Z 18011KT 13/10 A3006 RMK A01 T01260101  RH  085%=      5-min Rain = 0
KOD1 100543Z 18012KT 13/10 A3006 RMK A01 T01260101  RH  085%=      5-min Rain = 0
KOD1 100544Z 18011KT 13/10 A3006 RMK A01 T01270102  RH  085%=      5-min Rain = 0
KOD1 100545Z 18011KT 13/10 A3006 RMK A01 T01270101  RH  084%=      5-min Rain = 0
KOD1 100546Z 18011KT 13/10 A3006 RMK A01 T01280101  RH  084%=      5-min Rain = 0
KOD1 100547Z 18011KT 13/10 A3006 RMK A01 T01270101  RH  084%=      5-min Rain = 0
KOD1 100548Z 18011KT 13/10 A3006 RMK A01 T01280101  RH  084%=      5-min Rain = 0
KOD1 100549Z 18011KT 13/10 A3006 RMK A01 T01290102  RH  084%=      5-min Rain = 0
KOD1 100550Z 18011KT 13/10 A3006 RMK A01 T01290101  RH  083%=      5-min Rain = 0
KOD1 100551Z 18011KT 13/10 A3006 RMK A01 T01280101  RH  083%=      5-min Rain = 0
KOD1 100552Z 18011KT 13/10 A3006 RMK A01 T01280101  RH  083%=      5-min Rain = 0
KOD1 100553Z 18010KT 13/10 A3006 RMK A01 T01280100  RH  084%=      5-min Rain = 0
KOD1 100554Z 18010KT 13/10 A3006 RMK A01 T01280101  RH  084%=      5-min Rain = 0
KOD1 100555Z 18010KT 13/10 A3005 RMK A01 T01280101  RH  084%=      5-min Rain = 0
KOD1 100556Z 18011KT 13/10 A3005 RMK A01 T01280100  RH  083%=      5-min Rain = 0
KOD1 100557Z 18011KT 13/10 A3005 RMK A01 T01270100  RH  084%=      5-min Rain = 0
KOD1 100558Z 18011KT 13/10 A3005 RMK A01 T01270101  RH  084%=      5-min Rain = 0
KOD1 100559Z 18011KT 13/10 A3005 RMK A01 T01280101  RH  083%=      5-min Rain = 0

Page generated in 0.0848 seconds.